Time,TemperatureF,DewpointF,PressureIn,WindDirection,WindDirectionDegrees,WindSpeedMPH,WindSpeedGustMPH,Humidity,HourlyPrecipIn,Conditions,Clouds,dailyrainin,SoftwareType,DateUTC
2013-03-15 00:00:00,29.1,20.9,29.67,SSW,202,0.0,0.0,71,0.00,,,0.00,WUHU21623XXSP,2013-03-15 04:00:00,
2013-03-15 00:05:00,29.1,20.9,29.67,SW,225,0.0,0.0,71,0.00,,,0.00,WUHU21623XXSP,2013-03-15 04:05:00,
2013-03-15 00:10:00,29.1,20.9,29.67,SW,225,0.0,0.0,71,0.00,,,0.00,WUHU21623XXSP,2013-03-15 04:10:00,
2013-03-15 00:11:00,29.1,20.9,29.67,SW,225,0.0,0.0,71,0.00,,,0.00,WUHU21623XXSP,2013-03-15 04:11:00,
2013-03-15 00:15:00,29.1,20.9,29.67,SW,225,0.0,0.0,71,0.00,,,0.00,WUHU21623XXSP,2013-03-15 04:15:00,
2013-03-15 00:16:00,29.1,20.9,29.67,SW,225,0.0,0.0,71,0.00,,,0.00,WUHU21623XXSP,2013-03-15 04:16:00,
2013-03-15 00:20:00,29.1,21.2,29.67,SW,225,0.0,0.0,72,0.00,,,0.00,WUHU21623XXSP,2013-03-15 04:20:00,
2013-03-15 00:21:00,29.1,21.2,29.67,SW,225,0.0,0.0,72,0.00,,,0.00,WUHU21623XXSP,2013-03-15 04:21:00,
2013-03-15 00:25:00,29.1,21.2,29.67,SSW,202,0.0,0.0,72,0.00,,,0.00,WUHU21623XXSP,2013-03-15 04:25:00,
2013-03-15 00:26:00,29.1,21.2,29.67,SSW,202,0.0,0.0,72,0.00,,,0.00,WUHU21623XXSP,2013-03-15 04:26:00,
2013-03-15 00:30:00,29.1,21.2,29.67,SSW,202,0.0,0.0,72,0.00,,,0.00,WUHU21623XXSP,2013-03-15 04:30:00,
2013-03-15 00:31:00,29.1,21.2,29.67,SSW,202,0.0,0.0,72,0.00,,,0.00,WUHU21623XXSP,2013-03-15 04:31:00,
2013-03-15 00:32:00,29.3,21.4,29.66,SW,225,0.0,0.0,72,0.00,,,0.00,WUHU21623XXSP,2013-03-15 04:32:00,
2013-03-15 00:36:00,29.3,21.4,29.67,SW,225,0.0,0.0,72,0.00,,,0.00,WUHU21623XXSP,2013-03-15 04:36:00,
2013-03-15 00:37:00,29.3,21.4,29.67,SW,225,0.0,0.0,72,0.00,,,0.00,WUHU21623XXSP,2013-03-15 04:37:00,
2013-03-15 00:41:00,29.5,21.5,29.66,WSW,247,0.0,0.0,72,0.00,,,0.00,WUHU21623XXSP,2013-03-15 04:41:00,
2013-03-15 00:42:00,29.5,21.8,29.66,WSW,247,0.0,0.0,73,0.00,,,0.00,WUHU21623XXSP,2013-03-15 04:42:00,
2013-03-15 00:43:00,29.5,21.8,29.66,WSW,247,0.0,0.0,73,0.00,,,0.00,WUHU21623XXSP,2013-03-15 04:43:00,
2013-03-15 00:47:00,29.8,22.2,29.66,WSW,247,0.0,0.0,73,0.00,,,0.00,WUHU21623XXSP,2013-03-15 04:47:00,
2013-03-15 00:48:00,29.8,22.2,29.66,WSW,247,0.0,0.0,73,0.00,,,0.00,WUHU21623XXSP,2013-03-15 04:48:00,
2013-03-15 00:52:00,30.0,22.7,29.66,SW,225,0.0,0.0,74,0.00,,,0.00,WUHU21623XXSP,2013-03-15 04:52:00,
2013-03-15 00:53:00,30.0,22.7,29.66,WSW,247,0.0,0.0,74,0.00,,,0.00,WUHU21623XXSP,2013-03-15 04:53:00,
2013-03-15 00:57:00,30.2,22.9,29.66,WSW,247,0.0,0.0,74,0.00,,,0.00,WUHU21623XXSP,2013-03-15 04:57:00,
2013-03-15 00:58:00,30.4,23.0,29.66,WSW,247,0.0,0.0,74,0.00,,,0.00,WUHU21623XXSP,2013-03-15 04:58:00,
2013-03-15 01:02:00,30.6,23.2,29.66,WSW,247,0.0,0.0,74,0.00,,,0.00,WUHU21623XXSP,2013-03-15 05:02:00,
2013-03-15 01:03:00,30.6,23.2,29.66,WSW,247,0.0,0.0,74,0.00,,,0.00,WUHU21623XXSP,2013-03-15 05:03:00,
2013-03-15 01:04:00,30.6,23.2,29.66,WSW,247,0.0,0.0,74,0.00,,,0.00,WUHU21623XXSP,2013-03-15 05:04:00,
2013-03-15 01:07:00,30.9,23.6,29.66,WSW,247,0.0,0.0,74,0.00,,,0.00,WUHU21623XXSP,2013-03-15 05:07:00,
2013-03-15 01:08:00,31.1,23.8,29.66,SW,225,0.0,0.0,74,0.00,,,0.00,WUHU21623XXSP,2013-03-15 05:08:00,
2013-03-15 01:09:00,31.1,23.8,29.66,SW,225,0.0,0.0,74,0.00,,,0.00,WUHU21623XXSP,2013-03-15 05:09:00,
2013-03-15 01:12:00,31.3,23.9,29.66,WSW,247,0.0,0.0,74,0.00,,,0.00,WUHU21623XXSP,2013-03-15 05:12:00,
2013-03-15 01:13:00,31.3,23.9,29.66,WSW,247,0.0,0.0,74,0.00,,,0.00,WUHU21623XXSP,2013-03-15 05:13:00,
2013-03-15 01:14:00,31.3,23.9,29.66,WSW,247,0.0,0.0,74,0.00,,,0.00,WUHU21623XXSP,2013-03-15 05:14:00,
2013-03-15 01:18:00,31.6,24.0,29.66,WSW,247,0.0,0.0,73,0.00,,,0.00,WUHU21623XXSP,2013-03-15 05:18:00,
2013-03-15 01:19:00,31.6,24.0,29.66,WSW,247,0.0,0.0,74,0.00,,,0.00,WUHU21623XXSP,2013-03-15 05:19:00,
2013-03-15 01:23:00,31.8,24.2,29.65,WSW,247,0.0,0.0,73,0.00,,,0.00,WUHU21623XXSP,2013-03-15 05:23:00,
2013-03-15 01:24:00,31.8,24.2,29.65,WSW,247,0.0,0.0,73,0.00,,,0.00,WUHU21623XXSP,2013-03-15 05:24:00,
2013-03-15 01:28:00,31.8,24.2,29.65,WSW,247,0.0,0.0,73,0.00,,,0.00,WUHU21623XXSP,2013-03-15 05:28:00,
2013-03-15 01:29:00,31.8,24.2,29.65,WSW,247,0.0,0.0,73,0.00,,,0.00,WUHU21623XXSP,2013-03-15 05:29:00,
2013-03-15 01:33:00,31.8,24.2,29.65,WSW,247,0.0,0.0,73,0.00,,,0.00,WUHU21623XXSP,2013-03-15 05:33:00,
2013-03-15 01:34:00,32.0,24.3,29.65,WSW,247,0.0,0.0,73,0.00,,,0.00,WUHU21623XXSP,2013-03-15 05:34:00,
2013-03-15 01:38:00,32.2,24.5,29.64,WSW,247,0.0,0.0,73,0.00,,,0.00,WUHU21623XXSP,2013-03-15 05:38:00,
2013-03-15 01:39:00,32.2,24.5,29.64,WSW,247,0.0,0.0,73,0.00,,,0.00,WUHU21623XXSP,2013-03-15 05:39:00,
2013-03-15 01:43:00,31.8,24.2,29.65,WSW,247,0.0,0.0,73,0.00,,,0.00,WUHU21623XXSP,2013-03-15 05:43:00,
2013-03-15 01:44:00,31.8,24.2,29.65,WSW,247,0.0,0.0,73,0.00,,,0.00,WUHU21623XXSP,2013-03-15 05:44:00,
2013-03-15 01:49:00,31.8,24.2,29.65,WSW,247,0.0,0.0,73,0.00,,,0.00,WUHU21623XXSP,2013-03-15 05:49:00,
2013-03-15 01:54:00,31.8,24.2,29.65,WSW,247,0.0,0.0,73,0.00,,,0.00,WUHU21623XXSP,2013-03-15 05:54:00,
2013-03-15 01:55:00,31.8,24.2,29.65,WSW,247,0.0,0.0,73,0.00,,,0.00,WUHU21623XXSP,2013-03-15 05:55:00,
2013-03-15 01:59:00,31.8,24.2,29.64,WSW,247,0.0,0.0,73,0.00,,,0.00,WUHU21623XXSP,2013-03-15 05:59:00,
2013-03-15 02:00:00,31.8,24.2,29.64,WSW,247,0.0,0.0,73,0.00,,,0.00,WUHU21623XXSP,2013-03-15 06:00:00,
2013-03-15 02:04:00,31.8,24.2,29.64,WSW,247,0.0,0.0,73,0.00,,,0.00,WUHU21623XXSP,2013-03-15 06:04:00,
2013-03-15 02:05:00,31.8,24.2,29.64,WSW,247,0.0,0.0,73,0.00,,,0.00,WUHU21623XXSP,2013-03-15 06:05:00,
2013-03-15 02:09:00,31.6,24.0,29.64,WSW,247,0.0,0.0,73,0.00,,,0.00,WUHU21623XXSP,2013-03-15 06:09:00,
2013-03-15 02:10:00,31.6,24.0,29.64,WSW,247,0.0,0.0,73,0.00,,,0.00,WUHU21623XXSP,2013-03-15 06:10:00,
2013-03-15 02:14:00,31.5,23.8,29.64,WSW,247,0.0,0.0,73,0.00,,,0.00,WUHU21623XXSP,2013-03-15 06:14:00,
2013-03-15 02:15:00,31.3,23.6,29.64,WSW,247,0.0,0.0,73,0.00,,,0.00,WUHU21623XXSP,2013-03-15 06:15:00,
2013-03-15 02:19:00,31.1,23.4,29.63,WSW,247,0.0,0.0,73,0.00,,,0.00,WUHU21623XXSP,2013-03-15 06:19:00,
2013-03-15 02:20:00,31.1,23.4,29.63,WSW,247,0.0,0.0,73,0.00,,,0.00,WUHU21623XXSP,2013-03-15 06:20:00,
2013-03-15 02:24:00,30.9,23.3,29.63,WSW,247,0.0,0.0,73,0.00,,,0.00,WUHU21623XXSP,2013-03-15 06:24:00,
2013-03-15 02:25:00,30.9,23.3,29.63,WSW,247,0.0,0.0,73,0.00,,,0.00,WUHU21623XXSP,2013-03-15 06:25:00,
2013-03-15 02:30:00,30.6,23.2,29.63,WSW,247,0.0,0.0,74,0.00,,,0.00,WUHU21623XXSP,2013-03-15 06:30:00,
2013-03-15 02:31:00,30.6,23.2,29.63,WSW,247,0.0,0.0,74,0.00,,,0.00,WUHU21623XXSP,2013-03-15 06:31:00,
2013-03-15 02:35:00,30.4,23.0,29.63,WSW,247,0.0,0.0,74,0.00,,,0.00,WUHU21623XXSP,2013-03-15 06:35:00,
2013-03-15 02:36:00,30.4,23.0,29.62,SW,225,0.0,0.0,74,0.00,,,0.00,WUHU21623XXSP,2013-03-15 06:36:00,
2013-03-15 02:40:00,30.2,23.2,29.62,WSW,247,0.0,0.0,75,0.00,,,0.00,WUHU21623XXSP,2013-03-15 06:40:00,
2013-03-15 02:41:00,30.2,23.2,29.62,WSW,247,0.0,0.0,75,0.00,,,0.00,WUHU21623XXSP,2013-03-15 06:41:00,
2013-03-15 02:45:00,30.0,23.0,29.62,SW,225,0.0,0.0,75,0.00,,,0.00,WUHU21623XXSP,2013-03-15 06:45:00,
2013-03-15 02:46:00,30.0,22.7,29.62,SW,225,0.0,0.0,74,0.00,,,0.00,WUHU21623XXSP,2013-03-15 06:46:00,
2013-03-15 02:50:00,30.0,22.7,29.63,SW,225,0.0,0.0,74,0.00,,,0.00,WUHU21623XXSP,2013-03-15 06:50:00,
2013-03-15 02:51:00,30.0,22.7,29.63,SW,225,0.0,0.0,74,0.00,,,0.00,WUHU21623XXSP,2013-03-15 06:51:00,
2013-03-15 02:52:00,30.0,22.7,29.63,SW,225,0.0,0.0,74,0.00,,,0.00,WUHU21623XXSP,2013-03-15 06:52:00,
2013-03-15 02:55:00,30.0,23.0,29.62,SW,225,0.0,0.0,75,0.00,,,0.00,WUHU21623XXSP,2013-03-15 06:55:00,
2013-03-15 02:56:00,30.0,23.0,29.62,SW,225,0.0,0.0,75,0.00,,,0.00,WUHU21623XXSP,2013-03-15 06:56:00,
2013-03-15 02:57:00,30.0,23.0,29.62,SW,225,0.0,0.0,75,0.00,,,0.00,WUHU21623XXSP,2013-03-15 06:57:00,
2013-03-15 03:01:00,30.2,23.2,29.62,SW,225,0.0,0.0,75,0.00,,,0.00,WUHU21623XXSP,2013-03-15 07:01:00,
2013-03-15 03:02:00,30.4,23.4,29.62,SW,225,0.0,0.0,75,0.00,,,0.00,WUHU21623XXSP,2013-03-15 07:02:00,
2013-03-15 03:06:00,30.6,23.5,29.62,SW,225,0.0,0.0,75,0.00,,,0.00,WUHU21623XXSP,2013-03-15 07:06:00,
2013-03-15 03:07:00,30.6,23.5,29.62,SW,225,0.0,0.0,75,0.00,,,0.00,WUHU21623XXSP,2013-03-15 07:07:00,
2013-03-15 03:08:00,30.6,23.5,29.62,SW,225,0.0,0.0,75,0.00,,,0.00,WUHU21623XXSP,2013-03-15 07:08:00,
2013-03-15 03:09:00,30.6,23.5,29.62,WSW,247,0.0,0.0,75,0.00,,,0.00,WUHU21623XXSP,2013-03-15 07:09:00,
2013-03-15 03:11:00,30.7,23.7,29.62,WSW,247,0.0,0.0,75,0.00,,,0.00,WUHU21623XXSP,2013-03-15 07:11:00,
2013-03-15 03:12:00,30.7,23.7,29.62,WSW,247,0.0,0.0,75,0.00,,,0.00,WUHU21623XXSP,2013-03-15 07:12:00,
2013-03-15 03:13:00,30.7,23.7,29.62,WSW,247,0.0,0.0,75,0.00,,,0.00,WUHU21623XXSP,2013-03-15 07:13:00,
2013-03-15 03:14:00,30.7,23.7,29.62,WSW,247,0.0,0.0,75,0.00,,,0.00,WUHU21623XXSP,2013-03-15 07:14:00,
2013-03-15 03:16:00,30.7,23.7,29.62,WSW,247,0.0,0.0,75,0.00,,,0.00,WUHU21623XXSP,2013-03-15 07:16:00,
2013-03-15 03:17:00,30.7,23.7,29.62,WSW,247,0.0,0.0,75,0.00,,,0.00,WUHU21623XXSP,2013-03-15 07:17:00,
2013-03-15 03:18:00,30.7,23.7,29.62,WSW,247,0.0,0.0,75,0.00,,,0.00,WUHU21623XXSP,2013-03-15 07:18:00,
2013-03-15 03:19:00,30.7,23.7,29.62,WSW,247,0.0,0.0,75,0.00,,,0.00,WUHU21623XXSP,2013-03-15 07:19:00,
2013-03-15 03:22:00,30.7,23.7,29.62,SW,225,0.0,0.0,75,0.00,,,0.00,WUHU21623XXSP,2013-03-15 07:22:00,
2013-03-15 03:23:00,30.7,23.7,29.62,SSW,202,0.0,0.0,75,0.00,,,0.00,WUHU21623XXSP,2013-03-15 07:23:00,
2013-03-15 03:24:00,30.7,23.7,29.62,SSW,202,0.0,0.0,75,0.00,,,0.00,WUHU21623XXSP,2013-03-15 07:24:00,
2013-03-15 03:27:00,30.6,23.5,29.62,SW,225,0.0,0.0,75,0.00,,,0.00,WUHU21623XXSP,2013-03-15 07:27:00,
2013-03-15 03:28:00,30.6,23.5,29.61,SW,225,0.0,0.0,75,0.00,,,0.00,WUHU21623XXSP,2013-03-15 07:28:00,
2013-03-15 03:29:00,30.6,23.5,29.61,SW,225,0.0,0.0,75,0.00,,,0.00,WUHU21623XXSP,2013-03-15 07:29:00,
2013-03-15 03:32:00,30.4,23.5,29.62,SW,225,0.0,0.0,75,0.00,,,0.00,WUHU21623XXSP,2013-03-15 07:32:00,
2013-03-15 03:33:00,30.4,23.5,29.62,SW,225,0.0,0.0,75,0.00,,,0.00,WUHU21623XXSP,2013-03-15 07:33:00,
2013-03-15 03:34:00,30.4,23.4,29.61,SW,225,0.0,0.0,75,0.00,,,0.00,WUHU21623XXSP,2013-03-15 07:34:00,
2013-03-15 03:37:00,30.2,23.4,29.61,SW,225,0.0,0.0,75,0.00,,,0.00,WUHU21623XXSP,2013-03-15 07:37:00,
2013-03-15 03:38:00,30.0,23.0,29.61,WSW,247,0.0,0.0,75,0.00,,,0.00,WUHU21623XXSP,2013-03-15 07:38:00,
2013-03-15 03:39:00,30.0,23.0,29.61,WSW,247,0.0,0.0,75,0.00,,,0.00,WUHU21623XXSP,2013-03-15 07:39:00,
2013-03-15 03:40:00,30.0,23.0,29.61,WSW,247,0.0,0.0,75,0.00,,,0.00,WUHU21623XXSP,2013-03-15 07:40:00,
2013-03-15 03:42:00,30.0,23.0,29.61,SW,225,0.0,0.0,75,0.00,,,0.00,WUHU21623XXSP,2013-03-15 07:42:00,
2013-03-15 03:43:00,30.0,23.0,29.61,SW,225,0.0,0.0,75,0.00,,,0.00,WUHU21623XXSP,2013-03-15 07:43:00,
2013-03-15 03:44:00,30.0,23.0,29.61,SW,225,0.0,0.0,75,0.00,,,0.00,WUHU21623XXSP,2013-03-15 07:44:00,
2013-03-15 03:45:00,30.0,23.0,29.61,SW,225,0.0,0.0,75,0.00,,,0.00,WUHU21623XXSP,2013-03-15 07:45:00,
2013-03-15 03:47:00,30.0,23.0,29.61,SW,225,0.0,0.0,75,0.00,,,0.00,WUHU21623XXSP,2013-03-15 07:47:00,
2013-03-15 03:48:00,30.0,23.0,29.61,SW,225,0.0,0.0,75,0.00,,,0.00,WUHU21623XXSP,2013-03-15 07:48:00,
2013-03-15 03:49:00,29.8,22.8,29.61,SW,225,0.0,0.0,75,0.00,,,0.00,WUHU21623XXSP,2013-03-15 07:49:00,
2013-03-15 03:50:00,29.8,22.8,29.61,SW,225,0.0,0.0,75,0.00,,,0.00,WUHU21623XXSP,2013-03-15 07:50:00,
2013-03-15 03:52:00,29.8,23.1,29.61,SW,225,0.0,0.0,76,0.00,,,0.00,WUHU21623XXSP,2013-03-15 07:52:00,
2013-03-15 03:53:00,29.8,23.1,29.61,SW,225,0.0,0.0,76,0.00,,,0.00,WUHU21623XXSP,2013-03-15 07:53:00,
2013-03-15 03:54:00,29.8,23.1,29.61,SW,225,0.0,0.0,76,0.00,,,0.00,WUHU21623XXSP,2013-03-15 07:54:00,
2013-03-15 03:55:00,29.8,23.1,29.61,SW,225,0.0,0.0,76,0.00,,,0.00,WUHU21623XXSP,2013-03-15 07:55:00,
2013-03-15 03:58:00,29.8,23.1,29.61,SW,225,0.0,0.0,76,0.00,,,0.00,WUHU21623XXSP,2013-03-15 07:58:00,
2013-03-15 03:59:00,29.8,23.1,29.60,SW,225,0.0,0.0,76,0.00,,,0.00,WUHU21623XXSP,2013-03-15 07:59:00,
2013-03-15 04:00:00,29.8,23.1,29.60,SW,225,0.0,0.0,76,0.00,,,0.00,WUHU21623XXSP,2013-03-15 08:00:00,
2013-03-15 04:03:00,29.7,23.0,29.60,SW,225,0.0,0.0,76,0.00,,,0.00,WUHU21623XXSP,2013-03-15 08:03:00,
2013-03-15 04:04:00,29.7,23.0,29.59,SSW,202,0.0,0.0,76,0.00,,,0.00,WUHU21623XXSP,2013-03-15 08:04:00,
2013-03-15 04:05:00,29.7,23.0,29.59,SSW,202,0.0,0.0,76,0.00,,,0.00,WUHU21623XXSP,2013-03-15 08:05:00,
2013-03-15 04:08:00,29.5,22.8,29.59,SSW,202,0.0,0.0,76,0.00,,,0.00,WUHU21623XXSP,2013-03-15 08:08:00,
2013-03-15 04:09:00,29.5,22.8,29.59,SSW,202,0.0,0.0,76,0.00,,,0.00,WUHU21623XXSP,2013-03-15 08:09:00,
2013-03-15 04:11:00,29.5,22.8,29.59,South,180,0.0,0.0,76,0.00,,,0.00,WUHU21623XXSP,2013-03-15 08:11:00,
2013-03-15 04:13:00,29.5,22.8,29.59,South,180,0.0,0.0,76,0.00,,,0.00,WUHU21623XXSP,2013-03-15 08:13:00,
2013-03-15 04:15:00,29.5,22.8,29.59,SSW,202,0.0,0.0,76,0.00,,,0.00,WUHU21623XXSP,2013-03-15 08:15:00,
2013-03-15 04:16:00,29.5,22.8,29.59,SSW,202,0.0,0.0,76,0.00,,,0.00,WUHU21623XXSP,2013-03-15 08:16:00,
2013-03-15 04:18:00,29.5,22.8,29.59,SSW,202,0.0,0.0,76,0.00,,,0.00,WUHU21623XXSP,2013-03-15 08:18:00,
2013-03-15 04:19:00,29.5,22.8,29.59,SSW,202,0.0,0.0,76,0.00,,,0.00,WUHU21623XXSP,2013-03-15 08:19:00,
2013-03-15 04:20:00,29.5,22.8,29.59,SSW,202,0.0,0.0,76,0.00,,,0.00,WUHU21623XXSP,2013-03-15 08:20:00,
2013-03-15 04:21:00,29.5,22.8,29.59,SSW,202,0.0,0.0,76,0.00,,,0.00,WUHU21623XXSP,2013-03-15 08:21:00,
2013-03-15 04:23:00,29.5,22.8,29.59,SSW,202,0.0,0.0,76,0.00,,,0.00,WUHU21623XXSP,2013-03-15 08:23:00,
2013-03-15 04:24:00,29.5,22.8,29.59,SSW,202,0.0,0.0,76,0.00,,,0.00,WUHU21623XXSP,2013-03-15 08:24:00,
2013-03-15 04:25:00,29.5,22.8,29.59,SSW,202,0.0,0.0,76,0.00,,,0.00,WUHU21623XXSP,2013-03-15 08:25:00,
2013-03-15 04:26:00,29.5,22.8,29.59,SSW,202,0.0,0.0,76,0.00,,,0.00,WUHU21623XXSP,2013-03-15 08:26:00,
2013-03-15 04:28:00,29.5,22.8,29.59,SSW,202,0.0,0.0,76,0.00,,,0.00,WUHU21623XXSP,2013-03-15 08:28:00,
2013-03-15 04:29:00,29.5,22.8,29.59,SSW,202,0.0,0.0,76,0.00,,,0.00,WUHU21623XXSP,2013-03-15 08:29:00,
2013-03-15 04:30:00,29.3,22.6,29.59,SW,225,0.0,0.0,76,0.00,,,0.00,WUHU21623XXSP,2013-03-15 08:30:00,
2013-03-15 04:31:00,29.3,22.6,29.59,SW,225,0.0,0.0,76,0.00,,,0.00,WUHU21623XXSP,2013-03-15 08:31:00,
2013-03-15 04:33:00,29.3,22.9,29.58,SSW,202,0.0,0.0,77,0.00,,,0.00,WUHU21623XXSP,2013-03-15 08:33:00,
2013-03-15 04:34:00,29.3,22.9,29.58,SSW,202,0.0,0.0,77,0.00,,,0.00,WUHU21623XXSP,2013-03-15 08:34:00,
2013-03-15 04:35:00,29.3,22.9,29.58,SSW,202,0.0,0.0,77,0.00,,,0.00,WUHU21623XXSP,2013-03-15 08:35:00,
2013-03-15 04:37:00,29.3,22.9,29.59,SW,225,0.0,0.0,77,0.00,,,0.00,WUHU21623XXSP,2013-03-15 08:37:00,
2013-03-15 04:39:00,29.3,22.9,29.59,SSW,202,0.0,0.0,77,0.00,,,0.00,WUHU21623XXSP,2013-03-15 08:39:00,
2013-03-15 04:40:00,29.5,23.1,29.58,SSW,202,0.0,0.0,77,0.00,,,0.00,WUHU21623XXSP,2013-03-15 08:40:00,
2013-03-15 04:42:00,29.3,22.9,29.58,SSW,202,0.0,0.0,77,0.00,,,0.00,WUHU21623XXSP,2013-03-15 08:42:00,
2013-03-15 04:44:00,29.3,22.9,29.58,SSW,202,0.0,0.0,77,0.00,,,0.00,WUHU21623XXSP,2013-03-15 08:44:00,
2013-03-15 04:45:00,29.3,22.9,29.58,SSW,202,0.0,0.0,77,0.00,,,0.00,WUHU21623XXSP,2013-03-15 08:45:00,
2013-03-15 04:47:00,29.5,23.1,29.58,SSW,202,0.0,0.0,77,0.00,,,0.00,WUHU21623XXSP,2013-03-15 08:47:00,
2013-03-15 04:49:00,29.5,23.1,29.58,SSW,202,0.0,0.0,77,0.00,,,0.00,WUHU21623XXSP,2013-03-15 08:49:00,
2013-03-15 04:50:00,29.5,23.1,29.58,SSW,202,0.0,0.0,77,0.00,,,0.00,WUHU21623XXSP,2013-03-15 08:50:00,
2013-03-15 04:52:00,29.5,23.1,29.58,SSW,202,0.0,0.0,77,0.00,,,0.00,WUHU21623XXSP,2013-03-15 08:52:00,
2013-03-15 04:54:00,29.5,23.1,29.58,SW,225,0.0,0.0,77,0.00,,,0.00,WUHU21623XXSP,2013-03-15 08:54:00,
2013-03-15 04:55:00,29.5,23.1,29.57,South,180,0.0,0.0,77,0.00,,,0.00,WUHU21623XXSP,2013-03-15 08:55:00,
2013-03-15 04:57:00,29.5,23.4,29.57,SW,225,0.0,0.0,78,0.00,,,0.00,WUHU21623XXSP,2013-03-15 08:57:00,
2013-03-15 04:59:00,29.5,23.4,29.57,SW,225,0.0,0.0,78,0.00,,,0.00,WUHU21623XXSP,2013-03-15 08:59:00,
2013-03-15 05:00:00,29.5,23.4,29.58,SW,225,0.0,0.0,78,0.00,,,0.00,WUHU21623XXSP,2013-03-15 09:00:00,
2013-03-15 05:02:00,29.5,23.4,29.57,SW,225,0.0,0.0,78,0.00,,,0.00,WUHU21623XXSP,2013-03-15 09:02:00,
2013-03-15 05:04:00,29.5,23.4,29.57,SW,225,0.0,0.0,78,0.00,,,0.00,WUHU21623XXSP,2013-03-15 09:04:00,
2013-03-15 05:05:00,29.7,23.6,29.57,SSW,202,0.0,0.0,78,0.00,,,0.00,WUHU21623XXSP,2013-03-15 09:05:00,
2013-03-15 05:07:00,29.8,23.8,29.57,SW,225,0.0,0.0,78,0.00,,,0.00,WUHU21623XXSP,2013-03-15 09:07:00,
2013-03-15 05:08:00,29.8,24.1,29.57,SW,225,0.0,0.0,79,0.00,,,0.00,WUHU21623XXSP,2013-03-15 09:08:00,
2013-03-15 05:09:00,29.8,24.1,29.57,SW,225,0.0,0.0,79,0.00,,,0.00,WUHU21623XXSP,2013-03-15 09:09:00,
2013-03-15 05:10:00,30.0,24.3,29.58,SW,225,0.0,0.0,79,0.00,,,0.00,WUHU21623XXSP,2013-03-15 09:10:00,
2013-03-15 05:12:00,30.0,24.3,29.58,SW,225,0.0,0.0,79,0.00,,,0.00,WUHU21623XXSP,2013-03-15 09:12:00,
2013-03-15 05:13:00,30.0,24.3,29.58,SW,225,0.0,0.0,79,0.00,,,0.00,WUHU21623XXSP,2013-03-15 09:13:00,
2013-03-15 05:14:00,30.0,24.3,29.58,SW,225,0.0,0.0,79,0.00,,,0.00,WUHU21623XXSP,2013-03-15 09:14:00,
2013-03-15 05:16:00,30.0,24.3,29.58,SW,225,0.0,0.0,79,0.00,,,0.00,WUHU21623XXSP,2013-03-15 09:16:00,
2013-03-15 05:17:00,30.2,24.5,29.58,SSW,202,0.0,0.0,79,0.00,,,0.00,WUHU21623XXSP,2013-03-15 09:17:00,
2013-03-15 05:18:00,30.2,24.5,29.58,SSW,202,0.0,0.0,79,0.00,,,0.00,WUHU21623XXSP,2013-03-15 09:18:00,
2013-03-15 05:19:00,30.4,24.7,29.57,SW,225,0.0,0.0,79,0.00,,,0.00,WUHU21623XXSP,2013-03-15 09:19:00,
2013-03-15 05:21:00,30.4,24.7,29.57,SW,225,0.0,0.0,79,0.00,,,0.00,WUHU21623XXSP,2013-03-15 09:21:00,
2013-03-15 05:22:00,30.4,24.7,29.57,SW,225,0.0,0.0,79,0.00,,,0.00,WUHU21623XXSP,2013-03-15 09:22:00,
2013-03-15 05:23:00,30.6,24.8,29.57,SSW,202,0.0,0.0,79,0.00,,,0.00,WUHU21623XXSP,2013-03-15 09:23:00,
2013-03-15 05:24:00,30.6,24.8,29.57,SSW,202,0.0,0.0,79,0.00,,,0.00,WUHU21623XXSP,2013-03-15 09:24:00,
2013-03-15 05:27:00,30.7,25.0,29.56,SW,225,0.0,0.0,79,0.00,,,0.00,WUHU21623XXSP,2013-03-15 09:27:00,
2013-03-15 05:29:00,30.7,25.0,29.56,SW,225,0.0,0.0,79,0.00,,,0.00,WUHU21623XXSP,2013-03-15 09:29:00,
2013-03-15 05:32:00,30.9,25.2,29.56,SW,225,0.0,0.0,79,0.00,,,0.00,WUHU21623XXSP,2013-03-15 09:32:00,
2013-03-15 05:33:00,30.9,25.2,29.56,SW,225,0.0,0.0,79,0.00,,,0.00,WUHU21623XXSP,2013-03-15 09:33:00,
2013-03-15 05:34:00,30.9,25.2,29.56,SSW,202,0.0,0.0,79,0.00,,,0.00,WUHU21623XXSP,2013-03-15 09:34:00,
2013-03-15 05:38:00,30.9,25.2,29.55,SSW,202,0.0,0.0,79,0.00,,,0.00,WUHU21623XXSP,2013-03-15 09:38:00,
2013-03-15 05:39:00,30.9,25.2,29.55,SW,225,0.0,0.0,79,0.00,,,0.00,WUHU21623XXSP,2013-03-15 09:39:00,
2013-03-15 05:40:00,30.9,25.2,29.55,SW,225,0.0,0.0,79,0.00,,,0.00,WUHU21623XXSP,2013-03-15 09:40:00,
2013-03-15 05:43:00,31.3,25.9,29.56,SW,225,0.0,0.0,80,0.00,,,0.00,WUHU21623XXSP,2013-03-15 09:43:00,
2013-03-15 05:44:00,31.3,25.9,29.56,SW,225,0.0,0.0,80,0.00,,,0.00,WUHU21623XXSP,2013-03-15 09:44:00,
2013-03-15 05:45:00,31.3,25.9,29.56,SW,225,0.0,0.0,80,0.00,,,0.00,WUHU21623XXSP,2013-03-15 09:45:00,
2013-03-15 05:48:00,31.3,25.9,29.56,SW,225,0.0,0.0,80,0.00,,,0.00,WUHU21623XXSP,2013-03-15 09:48:00,
2013-03-15 05:49:00,31.3,25.9,29.56,WSW,247,0.0,0.0,80,0.00,,,0.00,WUHU21623XXSP,2013-03-15 09:49:00,
2013-03-15 05:50:00,31.3,25.9,29.56,WSW,247,0.0,0.0,80,0.00,,,0.00,WUHU21623XXSP,2013-03-15 09:50:00,
2013-03-15 05:53:00,31.5,26.1,29.56,WSW,247,0.0,0.0,80,0.00,,,0.00,WUHU21623XXSP,2013-03-15 09:53:00,
2013-03-15 05:54:00,31.5,26.1,29.56,WSW,247,0.0,0.0,80,0.00,,,0.00,WUHU21623XXSP,2013-03-15 09:54:00,
2013-03-15 05:55:00,31.6,26.2,29.56,WSW,247,0.0,0.0,80,0.00,,,0.00,WUHU21623XXSP,2013-03-15 09:55:00,
2013-03-15 05:58:00,31.6,26.2,29.56,WSW,247,0.0,0.0,80,0.00,,,0.00,WUHU21623XXSP,2013-03-15 09:58:00,
2013-03-15 05:59:00,31.6,26.2,29.56,WSW,247,0.0,0.0,80,0.00,,,0.00,WUHU21623XXSP,2013-03-15 09:59:00,
2013-03-15 06:00:00,31.6,26.2,29.56,SW,225,0.0,0.0,80,0.00,,,0.00,WUHU21623XXSP,2013-03-15 10:00:00,
2013-03-15 06:03:00,31.6,26.2,29.56,SW,225,0.0,0.0,80,0.00,,,0.00,WUHU21623XXSP,2013-03-15 10:03:00,
2013-03-15 06:04:00,31.8,26.2,29.56,WSW,247,0.0,0.0,80,0.00,,,0.00,WUHU21623XXSP,2013-03-15 10:04:00,
2013-03-15 06:05:00,31.8,26.2,29.56,WSW,247,0.0,0.0,80,0.00,,,0.00,WUHU21623XXSP,2013-03-15 10:05:00,
2013-03-15 06:08:00,31.8,26.7,29.56,WSW,247,0.0,0.0,81,0.00,,,0.00,WUHU21623XXSP,2013-03-15 10:08:00,
2013-03-15 06:09:00,31.8,26.7,29.56,WSW,247,0.0,0.0,81,0.00,,,0.00,WUHU21623XXSP,2013-03-15 10:09:00,
2013-03-15 06:10:00,31.8,26.7,29.56,WSW,247,0.0,0.0,81,0.00,,,0.00,WUHU21623XXSP,2013-03-15 10:10:00,
2013-03-15 06:13:00,31.8,26.7,29.56,WSW,247,0.0,0.0,81,0.00,,,0.00,WUHU21623XXSP,2013-03-15 10:13:00,
2013-03-15 06:14:00,31.8,26.7,29.56,WSW,247,0.0,0.0,81,0.00,,,0.00,WUHU21623XXSP,2013-03-15 10:14:00,
2013-03-15 06:15:00,31.8,26.7,29.56,WSW,247,0.0,0.0,81,0.00,,,0.00,WUHU21623XXSP,2013-03-15 10:15:00,
2013-03-15 06:18:00,32.2,26.7,29.55,WSW,247,0.0,0.0,81,0.00,,,0.00,WUHU21623XXSP,2013-03-15 10:18:00,
2013-03-15 06:19:00,32.2,26.7,29.55,WSW,247,0.0,0.0,81,0.00,,,0.00,WUHU21623XXSP,2013-03-15 10:19:00,
2013-03-15 06:20:00,32.2,26.7,29.55,WSW,247,0.0,0.0,81,0.00,,,0.00,WUHU21623XXSP,2013-03-15 10:20:00,
2013-03-15 06:24:00,32.2,27.3,29.55,WSW,247,0.0,0.0,82,0.00,,,0.00,WUHU21623XXSP,2013-03-15 10:24:00,
2013-03-15 06:25:00,32.2,27.3,29.55,WSW,247,0.0,0.0,82,0.00,,,0.00,WUHU21623XXSP,2013-03-15 10:25:00,
2013-03-15 06:26:00,32.2,27.3,29.55,SW,225,0.0,0.0,82,0.00,,,0.00,WUHU21623XXSP,2013-03-15 10:26:00,
2013-03-15 06:29:00,32.2,27.3,29.55,SW,225,0.0,0.0,82,0.00,,,0.00,WUHU21623XXSP,2013-03-15 10:29:00,
2013-03-15 06:30:00,32.2,27.3,29.55,SW,225,0.0,0.0,82,0.00,,,0.00,WUHU21623XXSP,2013-03-15 10:30:00,
2013-03-15 06:32:00,32.2,27.3,29.55,SW,225,0.0,0.0,82,0.00,,,0.00,WUHU21623XXSP,2013-03-15 10:32:00,
2013-03-15 06:34:00,32.2,27.3,29.55,SW,225,0.0,0.0,82,0.00,,,0.00,WUHU21623XXSP,2013-03-15 10:34:00,
2013-03-15 06:35:00,32.2,27.3,29.55,SW,225,0.0,0.0,82,0.00,,,0.00,WUHU21623XXSP,2013-03-15 10:35:00,
2013-03-15 06:37:00,32.4,27.3,29.55,SW,225,0.0,0.0,82,0.00,,,0.00,WUHU21623XXSP,2013-03-15 10:37:00,
2013-03-15 06:39:00,32.4,27.5,29.55,WSW,247,0.0,0.0,82,0.00,,,0.00,WUHU21623XXSP,2013-03-15 10:39:00,
2013-03-15 06:40:00,32.4,27.5,29.55,WSW,247,0.0,0.0,82,0.00,,,0.00,WUHU21623XXSP,2013-03-15 10:40:00,
2013-03-15 06:41:00,32.4,27.5,29.55,SW,225,0.0,0.0,82,0.00,,,0.00,WUHU21623XXSP,2013-03-15 10:41:00,
2013-03-15 06:42:00,32.4,27.5,29.55,SW,225,0.0,0.0,82,0.00,,,0.00,WUHU21623XXSP,2013-03-15 10:42:00,
2013-03-15 06:44:00,32.4,27.5,29.55,SW,225,0.0,0.0,82,0.00,,,0.00,WUHU21623XXSP,2013-03-15 10:44:00,
2013-03-15 06:45:00,32.2,27.5,29.54,SW,225,0.0,0.0,82,0.00,,,0.00,WUHU21623XXSP,2013-03-15 10:45:00,
2013-03-15 06:46:00,32.2,27.5,29.54,SW,225,0.0,0.0,82,0.00,,,0.00,WUHU21623XXSP,2013-03-15 10:46:00,
2013-03-15 06:47:00,32.2,27.5,29.54,SW,225,0.0,0.0,82,0.00,,,0.00,WUHU21623XXSP,2013-03-15 10:47:00,
2013-03-15 06:49:00,32.4,27.5,29.54,SW,225,0.0,0.0,82,0.00,,,0.00,WUHU21623XXSP,2013-03-15 10:49:00,
2013-03-15 06:50:00,32.4,27.5,29.54,SW,225,0.0,0.0,82,0.00,,,0.00,WUHU21623XXSP,2013-03-15 10:50:00,
2013-03-15 06:52:00,32.4,27.5,29.54,SW,225,0.0,0.0,82,0.00,,,0.00,WUHU21623XXSP,2013-03-15 10:52:00,
2013-03-15 06:54:00,32.4,27.5,29.54,WSW,247,0.0,0.0,82,0.00,,,0.00,WUHU21623XXSP,2013-03-15 10:54:00,
2013-03-15 06:55:00,32.4,27.5,29.54,WSW,247,0.0,0.0,82,0.00,,,0.00,WUHU21623XXSP,2013-03-15 10:55:00,
2013-03-15 06:57:00,32.4,27.5,29.54,WSW,247,0.0,0.0,82,0.00,,,0.00,WUHU21623XXSP,2013-03-15 10:57:00,
2013-03-15 06:59:00,32.4,27.5,29.54,SW,225,0.0,0.0,82,0.00,,,0.00,WUHU21623XXSP,2013-03-15 10:59:00,
2013-03-15 07:00:00,32.4,27.5,29.54,SW,225,0.0,0.0,82,0.00,,,0.00,WUHU21623XXSP,2013-03-15 11:00:00,
2013-03-15 07:02:00,32.2,27.5,29.54,SW,225,0.0,0.0,82,0.00,,,0.00,WUHU21623XXSP,2013-03-15 11:02:00,
2013-03-15 07:03:00,32.2,27.5,29.54,SW,225,0.0,0.0,82,0.00,,,0.00,WUHU21623XXSP,2013-03-15 11:03:00,
2013-03-15 07:05:00,32.4,27.5,29.53,SW,225,0.0,0.0,82,0.00,,,0.00,WUHU21623XXSP,2013-03-15 11:05:00,
2013-03-15 07:07:00,32.4,27.5,29.53,WSW,247,0.0,0.0,82,0.00,,,0.00,WUHU21623XXSP,2013-03-15 11:07:00,
2013-03-15 07:08:00,32.4,27.5,29.53,WSW,247,0.0,0.0,82,0.00,,,0.00,WUHU21623XXSP,2013-03-15 11:08:00,
2013-03-15 07:10:00,32.4,27.5,29.53,SW,225,0.0,0.0,82,0.00,,,0.00,WUHU21623XXSP,2013-03-15 11:10:00,
2013-03-15 07:12:00,32.2,27.3,29.53,SW,225,0.0,0.0,82,0.00,,,0.00,WUHU21623XXSP,2013-03-15 11:12:00,
2013-03-15 07:13:00,32.2,27.3,29.53,SW,225,0.0,0.0,82,0.00,,,0.00,WUHU21623XXSP,2013-03-15 11:13:00,
2013-03-15 07:15:00,32.2,27.3,29.53,WSW,247,0.0,0.0,82,0.00,,,0.00,WUHU21623XXSP,2013-03-15 11:15:00,
2013-03-15 07:16:00,32.2,27.3,29.53,WSW,247,0.0,0.0,82,0.00,,,0.00,WUHU21623XXSP,2013-03-15 11:16:00,
2013-03-15 07:17:00,32.2,27.3,29.53,WSW,247,0.0,0.0,82,0.00,,,0.00,WUHU21623XXSP,2013-03-15 11:17:00,
2013-03-15 07:18:00,32.2,27.3,29.53,WSW,247,0.0,0.0,82,0.00,,,0.00,WUHU21623XXSP,2013-03-15 11:18:00,
2013-03-15 07:20:00,32.2,27.3,29.53,SW,225,0.0,0.0,82,0.00,,,0.00,WUHU21623XXSP,2013-03-15 11:20:00,
2013-03-15 07:21:00,32.2,27.3,29.53,WSW,247,0.0,0.0,82,0.00,,,0.00,WUHU21623XXSP,2013-03-15 11:21:00,
2013-03-15 07:22:00,32.2,27.3,29.53,WSW,247,0.0,0.0,82,0.00,,,0.00,WUHU21623XXSP,2013-03-15 11:22:00,
2013-03-15 07:23:00,32.2,27.3,29.53,SW,225,0.0,0.0,82,0.00,,,0.00,WUHU21623XXSP,2013-03-15 11:23:00,
2013-03-15 07:25:00,32.2,27.3,29.53,SW,225,0.0,0.0,82,0.00,,,0.00,WUHU21623XXSP,2013-03-15 11:25:00,
2013-03-15 07:26:00,32.2,27.3,29.53,SW,225,0.0,0.0,82,0.00,,,0.00,WUHU21623XXSP,2013-03-15 11:26:00,
2013-03-15 07:28:00,32.2,27.3,29.53,SW,225,0.0,0.0,82,0.00,,,0.00,WUHU21623XXSP,2013-03-15 11:28:00,
2013-03-15 07:29:00,32.2,27.3,29.53,SW,225,0.0,0.0,82,0.00,,,0.00,WUHU21623XXSP,2013-03-15 11:29:00,
2013-03-15 07:30:00,32.2,27.3,29.53,SW,225,0.0,0.0,82,0.00,,,0.00,WUHU21623XXSP,2013-03-15 11:30:00,
2013-03-15 07:31:00,32.2,27.3,29.53,SW,225,0.0,0.0,82,0.00,,,0.00,WUHU21623XXSP,2013-03-15 11:31:00,
2013-03-15 07:33:00,32.2,27.3,29.53,SW,225,0.0,0.0,82,0.00,,,0.00,WUHU21623XXSP,2013-03-15 11:33:00,
2013-03-15 07:34:00,32.2,27.3,29.53,SW,225,0.0,0.0,82,0.00,,,0.00,WUHU21623XXSP,2013-03-15 11:34:00,
2013-03-15 07:35:00,32.2,27.3,29.53,SW,225,0.0,0.0,82,0.00,,,0.00,WUHU21623XXSP,2013-03-15 11:35:00,
2013-03-15 07:37:00,32.2,27.3,29.53,WSW,247,0.0,0.0,82,0.00,,,0.00,WUHU21623XXSP,2013-03-15 11:37:00,
2013-03-15 07:38:00,32.2,27.3,29.53,WSW,247,0.0,0.0,82,0.00,,,0.00,WUHU21623XXSP,2013-03-15 11:38:00,
2013-03-15 07:40:00,32.2,27.3,29.53,WSW,247,0.0,0.0,82,0.00,,,0.00,WUHU21623XXSP,2013-03-15 11:40:00,
2013-03-15 07:42:00,32.2,27.3,29.53,SW,225,0.0,0.0,82,0.00,,,0.00,WUHU21623XXSP,2013-03-15 11:42:00,
2013-03-15 07:43:00,32.2,27.3,29.53,SW,225,0.0,0.0,82,0.00,,,0.00,WUHU21623XXSP,2013-03-15 11:43:00,
2013-03-15 07:45:00,32.0,27.2,29.53,SSW,202,0.0,0.0,82,0.00,,,0.00,WUHU21623XXSP,2013-03-15 11:45:00,
2013-03-15 07:47:00,31.8,27.0,29.53,SW,225,0.0,0.0,82,0.00,,,0.00,WUHU21623XXSP,2013-03-15 11:47:00,
2013-03-15 07:48:00,31.8,27.0,29.53,SW,225,0.0,0.0,82,0.00,,,0.00,WUHU21623XXSP,2013-03-15 11:48:00,
2013-03-15 07:50:00,31.8,27.0,29.53,SW,225,0.0,0.0,82,0.00,,,0.00,WUHU21623XXSP,2013-03-15 11:50:00,
2013-03-15 07:53:00,31.8,27.0,29.53,SW,225,0.0,0.0,82,0.00,,,0.00,WUHU21623XXSP,2013-03-15 11:53:00,
2013-03-15 07:55:00,31.8,27.0,29.53,SW,225,0.0,0.0,82,0.00,,,0.00,WUHU21623XXSP,2013-03-15 11:55:00,
2013-03-15 07:56:00,31.8,27.0,29.53,SSW,202,0.0,0.0,82,0.00,,,0.00,WUHU21623XXSP,2013-03-15 11:56:00,
2013-03-15 07:58:00,31.8,27.0,29.53,WSW,247,0.0,0.0,82,0.00,,,0.00,WUHU21623XXSP,2013-03-15 11:58:00,
2013-03-15 08:00:00,31.8,27.0,29.53,SW,225,0.0,0.0,82,0.00,,,0.00,WUHU21623XXSP,2013-03-15 12:00:00,
2013-03-15 08:02:00,31.8,27.0,29.53,SW,225,0.0,0.0,82,0.00,,,0.00,WUHU21623XXSP,2013-03-15 12:02:00,
2013-03-15 08:03:00,31.8,27.0,29.53,SW,225,0.0,0.0,82,0.00,,,0.00,WUHU21623XXSP,2013-03-15 12:03:00,
2013-03-15 08:04:00,31.8,27.0,29.53,SW,225,0.0,0.0,82,0.00,,,0.00,WUHU21623XXSP,2013-03-15 12:04:00,
2013-03-15 08:05:00,31.8,27.0,29.53,SW,225,0.0,0.0,82,0.00,,,0.00,WUHU21623XXSP,2013-03-15 12:05:00,
2013-03-15 08:07:00,31.8,27.0,29.53,SW,225,0.0,0.0,82,0.00,,,0.00,WUHU21623XXSP,2013-03-15 12:07:00,
2013-03-15 08:08:00,31.8,27.0,29.53,SW,225,0.0,0.0,82,0.00,,,0.00,WUHU21623XXSP,2013-03-15 12:08:00,
2013-03-15 08:09:00,31.8,27.0,29.53,SW,225,0.0,0.0,82,0.00,,,0.00,WUHU21623XXSP,2013-03-15 12:09:00,
2013-03-15 08:10:00,31.8,27.0,29.53,SW,225,0.0,0.0,82,0.00,,,0.00,WUHU21623XXSP,2013-03-15 12:10:00,
2013-03-15 08:13:00,31.8,27.0,29.53,SW,225,0.0,0.0,82,0.00,,,0.00,WUHU21623XXSP,2013-03-15 12:13:00,
2013-03-15 08:14:00,31.8,27.0,29.53,SW,225,0.0,0.0,82,0.00,,,0.00,WUHU21623XXSP,2013-03-15 12:14:00,
2013-03-15 08:15:00,31.8,27.0,29.53,SW,225,0.0,0.0,82,0.00,,,0.00,WUHU21623XXSP,2013-03-15 12:15:00,
2013-03-15 08:18:00,31.8,27.3,29.53,SW,225,0.0,0.0,83,0.00,,,0.00,WUHU21623XXSP,2013-03-15 12:18:00,
2013-03-15 08:19:00,31.8,27.3,29.53,SW,225,0.0,0.0,83,0.00,,,0.00,WUHU21623XXSP,2013-03-15 12:19:00,
2013-03-15 08:20:00,31.8,27.3,29.53,SW,225,0.0,0.0,83,0.00,,,0.00,WUHU21623XXSP,2013-03-15 12:20:00,
2013-03-15 08:23:00,31.8,27.3,29.52,SW,225,0.0,0.0,83,0.00,,,0.00,WUHU21623XXSP,2013-03-15 12:23:00,
2013-03-15 08:25:00,31.8,27.3,29.52,SSW,202,0.0,0.0,83,0.00,,,0.00,WUHU21623XXSP,2013-03-15 12:25:00,
2013-03-15 08:26:00,31.8,27.3,29.52,SSW,202,0.0,0.0,83,0.00,,,0.00,WUHU21623XXSP,2013-03-15 12:26:00,
2013-03-15 08:28:00,31.8,27.3,29.52,SSW,202,0.0,0.0,83,0.00,,,0.00,WUHU21623XXSP,2013-03-15 12:28:00,
2013-03-15 08:29:00,31.8,27.3,29.52,SSW,202,0.0,0.0,83,0.00,,,0.00,WUHU21623XXSP,2013-03-15 12:29:00,
2013-03-15 08:30:00,31.8,27.3,29.52,SW,225,0.0,0.0,83,0.00,,,0.00,WUHU21623XXSP,2013-03-15 12:30:00,
2013-03-15 08:31:00,31.8,27.3,29.52,SW,225,0.0,0.0,83,0.00,,,0.00,WUHU21623XXSP,2013-03-15 12:31:00,
2013-03-15 08:33:00,31.8,27.3,29.52,SW,225,0.0,0.0,83,0.00,,,0.00,WUHU21623XXSP,2013-03-15 12:33:00,
2013-03-15 08:34:00,31.8,27.3,29.52,SSW,202,0.0,0.0,83,0.00,,,0.00,WUHU21623XXSP,2013-03-15 12:34:00,
2013-03-15 08:35:00,31.8,27.3,29.52,SSW,202,0.0,0.0,83,0.00,,,0.00,WUHU21623XXSP,2013-03-15 12:35:00,
2013-03-15 08:36:00,31.8,27.3,29.52,SSW,202,0.0,0.0,83,0.00,,,0.00,WUHU21623XXSP,2013-03-15 12:36:00,
2013-03-15 08:38:00,31.8,27.3,29.52,SW,225,0.0,0.0,83,0.00,,,0.00,WUHU21623XXSP,2013-03-15 12:38:00,
2013-03-15 08:39:00,31.8,27.3,29.52,SW,225,0.0,0.0,83,0.00,,,0.00,WUHU21623XXSP,2013-03-15 12:39:00,
2013-03-15 08:40:00,32.0,27.5,29.52,SSW,202,0.0,0.0,83,0.00,,,0.00,WUHU21623XXSP,2013-03-15 12:40:00,
2013-03-15 08:41:00,32.0,27.5,29.52,SSW,202,0.0,0.0,83,0.00,,,0.00,WUHU21623XXSP,2013-03-15 12:41:00,
2013-03-15 08:43:00,32.0,27.5,29.52,SW,225,0.0,0.0,83,0.00,,,0.00,WUHU21623XXSP,2013-03-15 12:43:00,
2013-03-15 08:44:00,32.0,27.5,29.52,SW,225,0.0,0.0,83,0.00,,,0.00,WUHU21623XXSP,2013-03-15 12:44:00,
2013-03-15 08:45:00,32.2,27.6,29.52,SW,225,0.0,0.0,83,0.00,,,0.00,WUHU21623XXSP,2013-03-15 12:45:00,
2013-03-15 08:46:00,32.2,27.6,29.52,SW,225,0.0,0.0,83,0.00,,,0.00,WUHU21623XXSP,2013-03-15 12:46:00,
2013-03-15 08:49:00,32.4,27.8,29.53,WSW,247,0.0,0.0,83,0.00,,,0.00,WUHU21623XXSP,2013-03-15 12:49:00,
2013-03-15 08:50:00,32.4,27.8,29.53,WSW,247,0.0,0.0,83,0.00,,,0.00,WUHU21623XXSP,2013-03-15 12:50:00,
2013-03-15 08:51:00,32.4,27.8,29.53,SW,225,0.0,0.0,83,0.00,,,0.00,WUHU21623XXSP,2013-03-15 12:51:00,
2013-03-15 08:54:00,32.4,27.8,29.53,SW,225,0.0,0.0,83,0.00,,,0.00,WUHU21623XXSP,2013-03-15 12:54:00,
2013-03-15 08:55:00,32.5,27.9,29.53,SW,225,0.0,0.0,83,0.00,,,0.00,WUHU21623XXSP,2013-03-15 12:55:00,
2013-03-15 08:57:00,32.5,27.9,29.53,SW,225,0.0,0.0,83,0.00,,,0.00,WUHU21623XXSP,2013-03-15 12:57:00,
2013-03-15 08:59:00,32.7,28.1,29.53,WSW,247,0.0,0.0,83,0.00,,,0.00,WUHU21623XXSP,2013-03-15 12:59:00,
2013-03-15 09:01:00,32.7,28.1,29.53,SW,225,0.0,0.0,83,0.00,,,0.00,WUHU21623XXSP,2013-03-15 13:01:00,
2013-03-15 09:02:00,32.7,28.1,29.53,SW,225,0.0,0.0,83,0.00,,,0.00,WUHU21623XXSP,2013-03-15 13:02:00,
2013-03-15 09:04:00,32.9,28.3,29.53,SW,225,0.0,0.0,83,0.00,,,0.00,WUHU21623XXSP,2013-03-15 13:04:00,
2013-03-15 09:05:00,32.9,28.3,29.53,SW,225,0.0,0.0,83,0.00,,,0.00,WUHU21623XXSP,2013-03-15 13:05:00,
2013-03-15 09:07:00,33.1,28.4,29.52,SW,225,0.0,0.0,83,0.00,,,0.00,WUHU21623XXSP,2013-03-15 13:07:00,
2013-03-15 09:08:00,33.1,28.4,29.52,SW,225,0.0,0.0,83,0.00,,,0.00,WUHU21623XXSP,2013-03-15 13:08:00,
2013-03-15 09:09:00,33.1,28.4,29.52,SW,225,0.0,0.0,83,0.00,,,0.00,WUHU21623XXSP,2013-03-15 13:09:00,
2013-03-15 09:10:00,33.3,28.4,29.52,SW,225,0.0,0.0,83,0.00,,,0.00,WUHU21623XXSP,2013-03-15 13:10:00,
2013-03-15 09:12:00,33.3,28.4,29.52,SW,225,0.0,0.0,83,0.00,,,0.00,WUHU21623XXSP,2013-03-15 13:12:00,
2013-03-15 09:14:00,33.3,28.6,29.52,SW,225,0.0,0.0,83,0.00,,,0.00,WUHU21623XXSP,2013-03-15 13:14:00,
2013-03-15 09:15:00,33.4,28.8,29.53,WSW,247,0.0,0.0,83,0.00,,,0.00,WUHU21623XXSP,2013-03-15 13:15:00,
2013-03-15 09:17:00,33.4,28.8,29.52,WSW,247,0.0,0.0,83,0.00,,,0.00,WUHU21623XXSP,2013-03-15 13:17:00,
2013-03-15 09:19:00,33.4,28.5,29.52,SW,225,0.0,0.0,82,0.00,,,0.00,WUHU21623XXSP,2013-03-15 13:19:00,
2013-03-15 09:20:00,33.4,28.5,29.52,SW,225,0.0,0.0,82,0.00,,,0.00,WUHU21623XXSP,2013-03-15 13:20:00,
2013-03-15 09:22:00,33.6,28.6,29.52,SW,225,0.0,0.0,82,0.00,,,0.00,WUHU21623XXSP,2013-03-15 13:22:00,
2013-03-15 09:24:00,33.6,28.6,29.53,WSW,247,0.0,0.0,82,0.00,,,0.00,WUHU21623XXSP,2013-03-15 13:24:00,
2013-03-15 09:25:00,33.6,28.6,29.53,WSW,247,0.0,0.0,82,0.00,,,0.00,WUHU21623XXSP,2013-03-15 13:25:00,
2013-03-15 09:27:00,33.8,28.8,29.52,SW,225,0.0,0.0,82,0.00,,,0.00,WUHU21623XXSP,2013-03-15 13:27:00,
2013-03-15 09:29:00,33.8,28.8,29.52,SW,225,0.0,0.0,82,0.00,,,0.00,WUHU21623XXSP,2013-03-15 13:29:00,
2013-03-15 09:30:00,33.8,28.8,29.52,SW,225,0.0,0.0,82,0.00,,,0.00,WUHU21623XXSP,2013-03-15 13:30:00,
2013-03-15 09:32:00,34.0,29.0,29.52,SW,225,0.0,0.0,82,0.00,,,0.00,WUHU21623XXSP,2013-03-15 13:32:00,
2013-03-15 09:34:00,34.2,29.2,29.52,SW,225,0.0,0.0,82,0.00,,,0.00,WUHU21623XXSP,2013-03-15 13:34:00,
2013-03-15 09:35:00,34.2,29.2,29.52,SW,225,0.0,0.0,82,0.00,,,0.00,WUHU21623XXSP,2013-03-15 13:35:00,
2013-03-15 09:37:00,34.3,29.2,29.52,SW,225,0.0,0.0,82,0.00,,,0.00,WUHU21623XXSP,2013-03-15 13:37:00,
2013-03-15 09:40:00,34.3,29.3,29.52,SW,225,0.0,0.0,82,0.00,,,0.00,WUHU21623XXSP,2013-03-15 13:40:00,
2013-03-15 09:43:00,34.3,29.3,29.51,SW,225,0.0,0.0,82,0.00,,,0.00,WUHU21623XXSP,2013-03-15 13:43:00,
2013-03-15 09:45:00,34.3,29.3,29.51,SW,225,0.0,0.0,82,0.00,,,0.00,WUHU21623XXSP,2013-03-15 13:45:00,
2013-03-15 09:48:00,34.5,29.2,29.51,SW,225,0.0,0.0,81,0.00,,,0.00,WUHU21623XXSP,2013-03-15 13:48:00,
2013-03-15 09:50:00,34.7,29.4,29.51,WSW,247,0.0,0.0,81,0.00,,,0.00,WUHU21623XXSP,2013-03-15 13:50:00,
2013-03-15 09:53:00,34.7,29.4,29.51,WSW,247,0.0,0.0,81,0.00,,,0.00,WUHU21623XXSP,2013-03-15 13:53:00,
2013-03-15 09:55:00,34.9,29.6,29.51,SW,225,0.0,0.0,81,0.00,,,0.00,WUHU21623XXSP,2013-03-15 13:55:00,
2013-03-15 09:58:00,34.9,29.6,29.51,WSW,247,0.0,0.0,81,0.00,,,0.00,WUHU21623XXSP,2013-03-15 13:58:00,
2013-03-15 10:00:00,34.9,29.3,29.51,WSW,247,0.0,0.0,80,0.00,,,0.00,WUHU21623XXSP,2013-03-15 14:00:00,
2013-03-15 10:01:00,34.9,29.3,29.51,WSW,247,0.0,0.0,80,0.00,,,0.00,WUHU21623XXSP,2013-03-15 14:01:00,
2013-03-15 10:03:00,35.2,29.7,29.51,WSW,247,0.0,0.0,80,0.00,,,0.00,WUHU21623XXSP,2013-03-15 14:03:00,
2013-03-15 10:05:00,35.2,29.7,29.51,WSW,247,0.0,0.0,80,0.00,,,0.00,WUHU21623XXSP,2013-03-15 14:05:00,
2013-03-15 10:06:00,35.2,29.7,29.51,WSW,247,0.0,0.0,80,0.00,,,0.00,WUHU21623XXSP,2013-03-15 14:06:00,
2013-03-15 10:08:00,35.4,29.8,29.51,WSW,247,0.0,0.0,80,0.00,,,0.00,WUHU21623XXSP,2013-03-15 14:08:00,
2013-03-15 10:10:00,35.2,29.7,29.51,WSW,247,0.0,0.0,80,0.00,,,0.00,WUHU21623XXSP,2013-03-15 14:10:00,
2013-03-15 10:12:00,35.2,29.7,29.51,WSW,247,0.0,0.0,80,0.00,,,0.00,WUHU21623XXSP,2013-03-15 14:12:00,
2013-03-15 10:13:00,35.4,29.8,29.51,WSW,247,0.0,0.0,80,0.00,,,0.00,WUHU21623XXSP,2013-03-15 14:13:00,
2013-03-15 10:16:00,35.4,29.8,29.51,SW,225,0.0,0.0,80,0.00,,,0.00,WUHU21623XXSP,2013-03-15 14:16:00,
2013-03-15 10:17:00,35.4,29.8,29.51,WSW,247,0.0,0.0,80,0.00,,,0.00,WUHU21623XXSP,2013-03-15 14:17:00,
2013-03-15 10:19:00,35.4,29.8,29.51,WSW,247,0.0,0.0,80,0.00,,,0.00,WUHU21623XXSP,2013-03-15 14:19:00,
2013-03-15 10:21:00,35.6,30.0,29.51,WSW,247,0.0,0.0,80,0.00,,,0.00,WUHU21623XXSP,2013-03-15 14:21:00,
2013-03-15 10:22:00,35.6,30.0,29.51,WSW,247,0.0,0.0,80,0.00,,,0.00,WUHU21623XXSP,2013-03-15 14:22:00,
2013-03-15 10:25:00,35.8,29.9,29.51,WSW,247,0.0,0.0,79,0.00,,,0.00,WUHU21623XXSP,2013-03-15 14:25:00,
2013-03-15 10:26:00,35.8,29.9,29.51,WSW,247,0.0,0.0,79,0.00,,,0.00,WUHU21623XXSP,2013-03-15 14:26:00,
2013-03-15 10:28:00,35.8,29.9,29.51,WSW,247,0.0,0.0,79,0.00,,,0.00,WUHU21623XXSP,2013-03-15 14:28:00,
2013-03-15 10:30:00,36.0,30.1,29.51,WSW,247,0.0,0.0,79,0.00,,,0.00,WUHU21623XXSP,2013-03-15 14:30:00,
2013-03-15 10:31:00,36.0,30.1,29.51,WSW,247,0.0,0.0,79,0.00,,,0.00,WUHU21623XXSP,2013-03-15 14:31:00,
2013-03-15 10:33:00,36.0,30.1,29.51,WSW,247,0.0,0.0,79,0.00,,,0.00,WUHU21623XXSP,2013-03-15 14:33:00,
2013-03-15 10:35:00,36.0,30.1,29.51,WSW,247,0.0,0.0,79,0.00,,,0.00,WUHU21623XXSP,2013-03-15 14:35:00,
2013-03-15 10:36:00,36.1,30.2,29.51,WSW,247,0.0,0.0,79,0.00,,,0.00,WUHU21623XXSP,2013-03-15 14:36:00,
2013-03-15 10:38:00,36.1,30.2,29.51,WSW,247,0.0,0.0,79,0.00,,,0.00,WUHU21623XXSP,2013-03-15 14:38:00,
2013-03-15 10:40:00,36.1,30.2,29.51,WSW,247,0.0,0.0,79,0.00,,,0.00,WUHU21623XXSP,2013-03-15 14:40:00,
2013-03-15 10:41:00,36.1,30.2,29.51,SW,225,0.0,0.0,79,0.00,,,0.00,WUHU21623XXSP,2013-03-15 14:41:00,
2013-03-15 10:42:00,36.1,30.2,29.51,SW,225,0.0,0.0,79,0.00,,,0.00,WUHU21623XXSP,2013-03-15 14:42:00,
2013-03-15 10:43:00,36.3,30.1,29.51,SW,225,0.0,0.0,78,0.00,,,0.00,WUHU21623XXSP,2013-03-15 14:43:00,
2013-03-15 10:45:00,36.3,30.1,29.51,SW,225,0.0,0.0,78,0.00,,,0.00,WUHU21623XXSP,2013-03-15 14:45:00,
2013-03-15 10:47:00,36.5,30.3,29.50,WSW,247,0.0,0.0,78,0.00,,,0.00,WUHU21623XXSP,2013-03-15 14:47:00,
2013-03-15 10:48:00,36.5,30.3,29.51,SW,225,0.0,0.0,78,0.00,,,0.00,WUHU21623XXSP,2013-03-15 14:48:00,
2013-03-15 10:50:00,36.5,30.3,29.51,SW,225,0.0,0.0,78,0.00,,,0.00,WUHU21623XXSP,2013-03-15 14:50:00,
2013-03-15 10:52:00,36.7,30.5,29.50,WSW,247,0.0,0.0,78,0.00,,,0.00,WUHU21623XXSP,2013-03-15 14:52:00,
2013-03-15 10:53:00,36.7,30.5,29.50,WSW,247,0.0,0.0,78,0.00,,,0.00,WUHU21623XXSP,2013-03-15 14:53:00,
2013-03-15 10:57:00,36.7,30.5,29.50,WSW,247,0.0,0.0,78,0.00,,,0.00,WUHU21623XXSP,2013-03-15 14:57:00,
2013-03-15 10:58:00,36.9,30.6,29.50,WSW,247,0.0,0.0,78,0.00,,,0.00,WUHU21623XXSP,2013-03-15 14:58:00,
2013-03-15 11:02:00,37.2,31.0,29.50,WSW,247,0.0,0.0,78,0.00,,,0.00,WUHU21623XXSP,2013-03-15 15:02:00,
2013-03-15 11:04:00,37.2,30.7,29.50,WSW,247,0.0,0.0,77,0.00,,,0.00,WUHU21623XXSP,2013-03-15 15:04:00,
2013-03-15 11:07:00,37.2,30.7,29.50,SW,225,0.0,0.0,77,0.00,,,0.00,WUHU21623XXSP,2013-03-15 15:07:00,
2013-03-15 11:08:00,37.2,30.7,29.50,SW,225,0.0,0.0,77,0.00,,,0.00,WUHU21623XXSP,2013-03-15 15:08:00,
2013-03-15 11:09:00,37.2,30.7,29.50,SW,225,0.0,0.0,77,0.00,,,0.00,WUHU21623XXSP,2013-03-15 15:09:00,
2013-03-15 11:12:00,37.2,30.7,29.50,SW,225,0.0,0.0,77,0.00,,,0.00,WUHU21623XXSP,2013-03-15 15:12:00,
2013-03-15 11:13:00,37.2,30.7,29.50,SW,225,0.0,0.0,77,0.00,,,0.00,WUHU21623XXSP,2013-03-15 15:13:00,
2013-03-15 11:14:00,37.2,30.7,29.50,SW,225,0.0,0.0,77,0.00,,,0.00,WUHU21623XXSP,2013-03-15 15:14:00,
2013-03-15 11:17:00,37.6,31.0,29.50,SW,225,0.0,0.0,77,0.00,,,0.00,WUHU21623XXSP,2013-03-15 15:17:00,
2013-03-15 11:18:00,37.6,31.0,29.50,SW,225,0.0,0.0,77,0.00,,,0.00,WUHU21623XXSP,2013-03-15 15:18:00,
2013-03-15 11:19:00,37.6,31.0,29.50,WSW,247,0.0,0.0,77,0.00,,,0.00,WUHU21623XXSP,2013-03-15 15:19:00,
2013-03-15 11:23:00,37.8,31.2,29.50,WSW,247,0.0,0.0,77,0.00,,,0.00,WUHU21623XXSP,2013-03-15 15:23:00,
2013-03-15 11:24:00,37.8,31.2,29.50,WSW,247,0.0,0.0,76,0.00,,,0.00,WUHU21623XXSP,2013-03-15 15:24:00,
2013-03-15 11:28:00,37.9,31.0,29.50,SW,225,0.0,0.0,76,0.00,,,0.00,WUHU21623XXSP,2013-03-15 15:28:00,
2013-03-15 11:29:00,37.9,31.0,29.50,SW,225,0.0,0.0,76,0.00,,,0.00,WUHU21623XXSP,2013-03-15 15:29:00,
2013-03-15 11:33:00,38.3,31.4,29.49,WSW,247,0.0,0.0,76,0.00,,,0.00,WUHU21623XXSP,2013-03-15 15:33:00,
2013-03-15 11:34:00,38.5,31.6,29.50,SW,225,0.0,0.0,76,0.00,,,0.00,WUHU21623XXSP,2013-03-15 15:34:00,
2013-03-15 11:38:00,38.8,31.9,29.49,SW,225,0.0,0.0,76,0.00,,,0.00,WUHU21623XXSP,2013-03-15 15:38:00,
2013-03-15 11:39:00,38.8,31.9,29.49,SW,225,0.0,0.0,76,0.00,,,0.00,WUHU21623XXSP,2013-03-15 15:39:00,
2013-03-15 11:40:00,38.8,31.9,29.49,SW,225,0.0,0.0,76,0.00,,,0.00,WUHU21623XXSP,2013-03-15 15:40:00,
2013-03-15 11:43:00,39.4,32.1,29.50,WSW,247,0.0,0.0,75,0.00,,,0.00,WUHU21623XXSP,2013-03-15 15:43:00,
2013-03-15 11:44:00,39.6,32.3,29.49,SW,225,0.0,0.0,75,0.00,,,0.00,WUHU21623XXSP,2013-03-15 15:44:00,
2013-03-15 11:45:00,39.6,32.3,29.49,SW,225,0.0,0.0,75,0.00,,,0.00,WUHU21623XXSP,2013-03-15 15:45:00,
2013-03-15 11:48:00,39.9,32.3,29.49,SW,225,0.0,0.0,74,0.00,,,0.00,WUHU21623XXSP,2013-03-15 15:48:00,
2013-03-15 11:49:00,39.9,32.3,29.49,SW,225,0.0,0.0,74,0.00,,,0.00,WUHU21623XXSP,2013-03-15 15:49:00,
2013-03-15 11:50:00,39.9,32.3,29.49,SW,225,0.0,0.0,74,0.00,,,0.00,WUHU21623XXSP,2013-03-15 15:50:00,
2013-03-15 11:54:00,40.1,32.4,29.49,SW,225,0.0,0.0,74,0.00,,,0.00,WUHU21623XXSP,2013-03-15 15:54:00,
2013-03-15 11:55:00,40.1,32.4,29.49,SW,225,0.0,0.0,74,0.00,,,0.00,WUHU21623XXSP,2013-03-15 15:55:00,
2013-03-15 11:59:00,40.6,32.6,29.49,SW,225,0.0,0.0,73,0.00,,,0.00,WUHU21623XXSP,2013-03-15 15:59:00,
2013-03-15 12:00:00,40.6,32.6,29.49,WSW,247,0.0,0.0,73,0.00,,,0.00,WUHU21623XXSP,2013-03-15 16:00:00,
2013-03-15 12:04:00,41.0,33.0,29.49,SW,225,0.0,0.0,73,0.00,,,0.00,WUHU21623XXSP,2013-03-15 16:04:00,
2013-03-15 12:05:00,41.0,33.0,29.49,SW,225,0.0,0.0,73,0.00,,,0.00,WUHU21623XXSP,2013-03-15 16:05:00,
2013-03-15 12:09:00,41.5,33.5,29.49,WSW,247,0.0,0.0,73,0.00,,,0.00,WUHU21623XXSP,2013-03-15 16:09:00,
2013-03-15 12:10:00,41.7,33.4,29.49,West,270,0.0,0.0,72,0.00,,,0.00,WUHU21623XXSP,2013-03-15 16:10:00,
2013-03-15 12:14:00,41.9,33.5,29.49,West,270,0.0,0.0,72,0.00,,,0.00,WUHU21623XXSP,2013-03-15 16:14:00,
2013-03-15 12:15:00,41.9,33.2,29.49,West,270,0.0,0.0,71,0.00,,,0.00,WUHU21623XXSP,2013-03-15 16:15:00,
2013-03-15 12:19:00,42.1,33.4,29.49,SW,225,0.0,0.0,71,0.00,,,0.00,WUHU21623XXSP,2013-03-15 16:19:00,
2013-03-15 12:20:00,42.3,33.6,29.49,West,270,0.0,0.0,71,0.00,,,0.00,WUHU21623XXSP,2013-03-15 16:20:00,
2013-03-15 12:21:00,42.3,33.6,29.49,West,270,0.0,0.0,71,0.00,,,0.00,WUHU21623XXSP,2013-03-15 16:21:00,
2013-03-15 12:24:00,42.4,33.8,29.49,West,270,0.0,0.0,71,0.00,,,0.00,WUHU21623XXSP,2013-03-15 16:24:00,
2013-03-15 12:25:00,42.4,33.4,29.49,West,270,0.0,0.0,70,0.00,,,0.00,WUHU21623XXSP,2013-03-15 16:25:00,
2013-03-15 12:26:00,42.4,33.4,29.49,West,270,0.0,0.0,70,0.00,,,0.00,WUHU21623XXSP,2013-03-15 16:26:00,
2013-03-15 12:29:00,42.4,33.4,29.49,West,270,0.0,0.0,70,0.00,,,0.00,WUHU21623XXSP,2013-03-15 16:29:00,
2013-03-15 12:30:00,42.4,33.0,29.49,WSW,247,0.0,0.0,69,0.00,,,0.00,WUHU21623XXSP,2013-03-15 16:30:00,
2013-03-15 12:32:00,42.4,33.0,29.49,WSW,247,0.0,0.0,69,0.00,,,0.00,WUHU21623XXSP,2013-03-15 16:32:00,
2013-03-15 12:34:00,42.6,33.2,29.49,WSW,247,0.0,0.0,69,0.00,,,0.00,WUHU21623XXSP,2013-03-15 16:34:00,
2013-03-15 12:35:00,42.6,33.2,29.49,WSW,247,0.0,0.0,69,0.00,,,0.00,WUHU21623XXSP,2013-03-15 16:35:00,
2013-03-15 12:36:00,42.6,33.2,29.49,WSW,247,0.0,0.0,69,0.00,,,0.00,WUHU21623XXSP,2013-03-15 16:36:00,
2013-03-15 12:37:00,42.6,33.2,29.49,WSW,247,0.0,0.0,69,0.00,,,0.00,WUHU21623XXSP,2013-03-15 16:37:00,
2013-03-15 12:39:00,42.6,33.2,29.49,West,270,0.0,0.0,69,0.00,,,0.00,WUHU21623XXSP,2013-03-15 16:39:00,
2013-03-15 12:40:00,42.6,33.2,29.49,West,270,0.0,0.0,69,0.00,,,0.00,WUHU21623XXSP,2013-03-15 16:40:00,
2013-03-15 12:41:00,42.6,33.2,29.49,West,270,0.0,0.0,69,0.00,,,0.00,WUHU21623XXSP,2013-03-15 16:41:00,
2013-03-15 12:42:00,42.6,33.2,29.49,West,270,0.0,0.0,69,0.00,,,0.00,WUHU21623XXSP,2013-03-15 16:42:00,
2013-03-15 12:44:00,42.8,33.2,29.49,WSW,247,0.0,0.0,69,0.00,,,0.00,WUHU21623XXSP,2013-03-15 16:44:00,
2013-03-15 12:45:00,42.8,33.2,29.49,WSW,247,0.0,0.0,69,0.00,,,0.00,WUHU21623XXSP,2013-03-15 16:45:00,
2013-03-15 12:47:00,43.0,33.6,29.49,WSW,247,0.0,0.0,69,0.00,,,0.00,WUHU21623XXSP,2013-03-15 16:47:00,
2013-03-15 12:49:00,43.0,33.6,29.49,WSW,247,0.0,0.0,69,0.00,,,0.00,WUHU21623XXSP,2013-03-15 16:49:00,
2013-03-15 12:50:00,43.0,33.6,29.49,WSW,247,0.0,0.0,69,0.00,,,0.00,WUHU21623XXSP,2013-03-15 16:50:00,
2013-03-15 12:52:00,43.2,33.7,29.49,West,270,0.0,0.0,69,0.00,,,0.00,WUHU21623XXSP,2013-03-15 16:52:00,
2013-03-15 12:54:00,43.3,33.9,29.49,West,270,0.0,0.0,69,0.00,,,0.00,WUHU21623XXSP,2013-03-15 16:54:00,
2013-03-15 12:55:00,43.3,33.5,29.50,West,270,0.0,0.0,68,0.00,,,0.00,WUHU21623XXSP,2013-03-15 16:55:00,
2013-03-15 12:57:00,43.3,33.5,29.49,West,270,0.0,0.0,68,0.00,,,0.00,WUHU21623XXSP,2013-03-15 16:57:00,
2013-03-15 12:59:00,43.3,33.5,29.49,WSW,247,0.0,0.0,68,0.00,,,0.00,WUHU21623XXSP,2013-03-15 16:59:00,
2013-03-15 13:00:00,43.3,33.5,29.49,WSW,247,0.0,0.0,68,0.00,,,0.00,WUHU21623XXSP,2013-03-15 17:00:00,
2013-03-15 13:02:00,43.5,33.7,29.49,WSW,247,0.0,0.0,68,0.00,,,0.00,WUHU21623XXSP,2013-03-15 17:02:00,
2013-03-15 13:04:00,43.5,33.7,29.49,West,270,0.0,0.0,68,0.00,,,0.00,WUHU21623XXSP,2013-03-15 17:04:00,
2013-03-15 13:05:00,43.5,33.7,29.49,West,270,0.0,0.0,68,0.00,,,0.00,WUHU21623XXSP,2013-03-15 17:05:00,
2013-03-15 13:07:00,43.7,33.8,29.49,West,270,0.0,0.0,68,0.00,,,0.00,WUHU21623XXSP,2013-03-15 17:07:00,
2013-03-15 13:08:00,43.7,33.4,29.49,WNW,292,0.0,0.0,67,0.00,,,0.00,WUHU21623XXSP,2013-03-15 17:08:00,
2013-03-15 13:09:00,43.7,33.4,29.49,WNW,292,0.0,0.0,67,0.00,,,0.00,WUHU21623XXSP,2013-03-15 17:09:00,
2013-03-15 13:10:00,43.5,33.3,29.49,WNW,292,0.0,0.0,67,0.00,,,0.00,WUHU21623XXSP,2013-03-15 17:10:00,
2013-03-15 13:13:00,43.5,33.3,29.49,West,270,0.0,0.0,67,0.00,,,0.00,WUHU21623XXSP,2013-03-15 17:13:00,
2013-03-15 13:14:00,43.5,33.3,29.49,West,270,0.0,0.0,67,0.00,,,0.00,WUHU21623XXSP,2013-03-15 17:14:00,
2013-03-15 13:16:00,43.5,33.3,29.49,WNW,292,0.0,0.0,67,0.00,,,0.00,WUHU21623XXSP,2013-03-15 17:16:00,
2013-03-15 13:18:00,43.5,33.3,29.49,West,270,0.0,0.0,67,0.00,,,0.00,WUHU21623XXSP,2013-03-15 17:18:00,
2013-03-15 13:19:00,43.9,33.3,29.49,West,270,0.0,0.0,67,0.00,,,0.00,WUHU21623XXSP,2013-03-15 17:19:00,
2013-03-15 13:21:00,44.1,33.8,29.49,WNW,292,0.0,0.0,67,0.00,,,0.00,WUHU21623XXSP,2013-03-15 17:21:00,
2013-03-15 13:23:00,44.2,33.9,29.49,West,270,0.0,0.0,67,0.00,,,0.00,WUHU21623XXSP,2013-03-15 17:23:00,
2013-03-15 13:24:00,44.2,33.9,29.49,West,270,0.0,0.0,67,0.00,,,0.00,WUHU21623XXSP,2013-03-15 17:24:00,
2013-03-15 13:25:00,44.2,33.9,29.49,West,270,0.0,0.0,67,0.00,,,0.00,WUHU21623XXSP,2013-03-15 17:25:00,
2013-03-15 13:26:00,44.2,33.9,29.49,NW,315,0.0,0.0,67,0.00,,,0.00,WUHU21623XXSP,2013-03-15 17:26:00,
2013-03-15 13:28:00,44.2,33.6,29.49,WNW,292,0.0,0.0,66,0.00,,,0.00,WUHU21623XXSP,2013-03-15 17:28:00,
2013-03-15 13:29:00,44.4,34.1,29.49,NW,315,0.0,0.0,67,0.00,,,0.00,WUHU21623XXSP,2013-03-15 17:29:00,
2013-03-15 13:30:00,44.4,34.1,29.49,NW,315,0.0,0.0,67,0.00,,,0.00,WUHU21623XXSP,2013-03-15 17:30:00,
2013-03-15 13:31:00,44.4,33.7,29.49,NW,315,0.0,0.0,66,0.00,,,0.00,WUHU21623XXSP,2013-03-15 17:31:00,
2013-03-15 13:33:00,44.4,33.7,29.49,NW,315,0.0,0.0,66,0.00,,,0.00,WUHU21623XXSP,2013-03-15 17:33:00,
2013-03-15 13:35:00,44.4,34.1,29.49,NW,315,0.0,0.0,67,0.00,,,0.00,WUHU21623XXSP,2013-03-15 17:35:00,
2013-03-15 13:37:00,44.4,33.7,29.49,WNW,292,0.0,0.0,66,0.00,,,0.00,WUHU21623XXSP,2013-03-15 17:37:00,
2013-03-15 13:38:00,44.4,34.1,29.48,WNW,292,0.0,0.0,67,0.00,,,0.00,WUHU21623XXSP,2013-03-15 17:38:00,
2013-03-15 13:40:00,44.4,33.7,29.49,WNW,292,0.0,0.0,66,0.00,,,0.00,WUHU21623XXSP,2013-03-15 17:40:00,
2013-03-15 13:42:00,44.4,33.7,29.49,WNW,292,0.0,0.0,66,0.00,,,0.00,WUHU21623XXSP,2013-03-15 17:42:00,
2013-03-15 13:43:00,44.6,33.9,29.49,West,270,0.0,0.0,66,0.00,,,0.00,WUHU21623XXSP,2013-03-15 17:43:00,
2013-03-15 13:45:00,44.6,33.9,29.49,WNW,292,0.0,0.0,66,0.00,,,0.00,WUHU21623XXSP,2013-03-15 17:45:00,
2013-03-15 13:47:00,44.6,33.5,29.48,West,270,0.0,0.0,65,0.00,,,0.00,WUHU21623XXSP,2013-03-15 17:47:00,
2013-03-15 13:48:00,44.6,33.5,29.48,West,270,0.0,0.0,65,0.00,,,0.00,WUHU21623XXSP,2013-03-15 17:48:00,
2013-03-15 13:50:00,44.6,33.5,29.48,West,270,0.0,0.0,65,0.00,,,0.00,WUHU21623XXSP,2013-03-15 17:50:00,
2013-03-15 13:52:00,45.0,34.3,29.48,WSW,247,0.0,0.0,66,0.00,,,0.00,WUHU21623XXSP,2013-03-15 17:52:00,
2013-03-15 13:53:00,45.1,34.4,29.48,WSW,247,0.0,0.0,66,0.00,,,0.00,WUHU21623XXSP,2013-03-15 17:53:00,
2013-03-15 13:55:00,45.3,34.2,29.48,West,270,0.0,0.0,65,0.00,,,0.00,WUHU21623XXSP,2013-03-15 17:55:00,
2013-03-15 13:57:00,45.3,34.2,29.48,West,270,0.0,0.0,65,0.00,,,0.00,WUHU21623XXSP,2013-03-15 17:57:00,
2013-03-15 13:59:00,45.7,34.6,29.48,WSW,247,0.0,0.0,65,0.00,,,0.00,WUHU21623XXSP,2013-03-15 17:59:00,
2013-03-15 14:01:00,45.9,34.7,29.48,West,270,0.0,0.0,65,0.00,,,0.00,WUHU21623XXSP,2013-03-15 18:01:00,
2013-03-15 14:02:00,46.2,35.1,29.48,West,270,0.0,0.0,65,0.00,,,0.00,WUHU21623XXSP,2013-03-15 18:02:00,
2013-03-15 14:04:00,46.2,34.7,29.48,WNW,292,0.0,0.0,64,0.00,,,0.00,WUHU21623XXSP,2013-03-15 18:04:00,
2013-03-15 14:07:00,46.4,34.8,29.47,WNW,292,0.0,0.0,64,0.00,,,0.00,WUHU21623XXSP,2013-03-15 18:07:00,
2013-03-15 14:09:00,46.6,35.0,29.47,WSW,247,0.0,0.0,64,0.00,,,0.00,WUHU21623XXSP,2013-03-15 18:09:00,
2013-03-15 14:12:00,46.9,35.3,29.47,WSW,247,0.0,0.0,64,0.00,,,0.00,WUHU21623XXSP,2013-03-15 18:12:00,
2013-03-15 14:14:00,47.1,35.5,29.46,WSW,247,0.0,0.0,64,0.00,,,0.00,WUHU21623XXSP,2013-03-15 18:14:00,
2013-03-15 14:17:00,47.7,35.7,29.46,WSW,247,0.0,0.0,63,0.00,,,0.00,WUHU21623XXSP,2013-03-15 18:17:00,
2013-03-15 14:19:00,47.8,35.7,29.46,WSW,247,0.0,0.0,62,0.00,,,0.00,WUHU21623XXSP,2013-03-15 18:19:00,
2013-03-15 14:22:00,47.8,35.5,29.46,WSW,247,0.0,0.0,62,0.00,,,0.00,WUHU21623XXSP,2013-03-15 18:22:00,
2013-03-15 14:25:00,48.0,35.6,29.46,WSW,247,0.0,0.0,62,0.00,,,0.00,WUHU21623XXSP,2013-03-15 18:25:00,
2013-03-15 14:27:00,48.4,36.0,29.46,WSW,247,0.0,0.0,62,0.00,,,0.00,WUHU21623XXSP,2013-03-15 18:27:00,
2013-03-15 14:28:00,48.4,36.0,29.46,WSW,247,0.0,0.0,62,0.00,,,0.00,WUHU21623XXSP,2013-03-15 18:28:00,
2013-03-15 14:30:00,48.7,36.3,29.46,WSW,247,0.0,0.0,62,0.00,,,0.00,WUHU21623XXSP,2013-03-15 18:30:00,
2013-03-15 14:32:00,48.9,36.1,29.46,West,270,0.0,0.0,61,0.00,,,0.00,WUHU21623XXSP,2013-03-15 18:32:00,
2013-03-15 14:33:00,48.9,36.1,29.46,West,270,0.0,0.0,61,0.00,,,0.00,WUHU21623XXSP,2013-03-15 18:33:00,
2013-03-15 14:35:00,48.9,35.7,29.46,West,270,0.0,0.0,60,0.00,,,0.00,WUHU21623XXSP,2013-03-15 18:35:00,
2013-03-15 14:38:00,48.7,35.5,29.46,SW,225,0.0,0.0,60,0.00,,,0.00,WUHU21623XXSP,2013-03-15 18:38:00,
2013-03-15 14:40:00,48.7,35.9,29.46,SW,225,0.0,0.0,61,0.00,,,0.00,WUHU21623XXSP,2013-03-15 18:40:00,
2013-03-15 14:43:00,48.7,35.9,29.46,SW,225,0.0,0.0,61,0.00,,,0.00,WUHU21623XXSP,2013-03-15 18:43:00,
2013-03-15 14:46:00,48.9,35.9,29.46,SW,225,0.0,0.0,61,0.00,,,0.00,WUHU21623XXSP,2013-03-15 18:46:00,
2013-03-15 14:48:00,49.1,35.9,29.46,West,270,0.0,0.0,60,0.00,,,0.00,WUHU21623XXSP,2013-03-15 18:48:00,
2013-03-15 14:49:00,49.3,36.0,29.46,West,270,0.0,0.0,60,0.00,,,0.00,WUHU21623XXSP,2013-03-15 18:49:00,
2013-03-15 14:51:00,49.3,36.0,29.45,West,270,0.0,0.0,60,0.00,,,0.00,WUHU21623XXSP,2013-03-15 18:51:00,
2013-03-15 14:53:00,49.5,36.0,29.46,West,270,0.0,0.0,60,0.00,,,0.00,WUHU21623XXSP,2013-03-15 18:53:00,
2013-03-15 14:54:00,49.5,36.0,29.46,West,270,0.0,0.0,60,0.00,,,0.00,WUHU21623XXSP,2013-03-15 18:54:00,
2013-03-15 14:57:00,49.8,36.0,29.45,West,270,0.0,0.0,59,0.00,,,0.00,WUHU21623XXSP,2013-03-15 18:57:00,
2013-03-15 14:58:00,49.8,36.0,29.45,West,270,0.0,0.0,59,0.00,,,0.00,WUHU21623XXSP,2013-03-15 18:58:00,
2013-03-15 14:59:00,49.8,36.0,29.45,West,270,0.0,0.0,59,0.00,,,0.00,WUHU21623XXSP,2013-03-15 18:59:00,
2013-03-15 15:02:00,49.8,36.5,29.45,SW,225,0.0,0.0,60,0.00,,,0.00,WUHU21623XXSP,2013-03-15 19:02:00,
2013-03-15 15:04:00,50.2,36.8,29.45,West,270,0.0,0.0,60,0.00,,,0.00,WUHU21623XXSP,2013-03-15 19:04:00,
2013-03-15 15:07:00,50.4,36.6,29.45,West,270,0.0,0.0,59,0.00,,,0.00,WUHU21623XXSP,2013-03-15 19:07:00,
2013-03-15 15:09:00,50.4,36.1,29.45,West,270,0.0,0.0,58,0.00,,,0.00,WUHU21623XXSP,2013-03-15 19:09:00,
2013-03-15 15:12:00,50.2,35.9,29.45,West,270,0.0,0.0,58,0.00,,,0.00,WUHU21623XXSP,2013-03-15 19:12:00,
2013-03-15 15:14:00,49.8,35.1,29.45,WNW,292,0.0,0.0,57,0.00,,,0.00,WUHU21623XXSP,2013-03-15 19:14:00,
2013-03-15 15:15:00,49.8,35.1,29.45,WNW,292,0.0,0.0,57,0.00,,,0.00,WUHU21623XXSP,2013-03-15 19:15:00,
2013-03-15 15:17:00,49.6,35.4,29.45,WSW,247,0.0,0.0,58,0.00,,,0.00,WUHU21623XXSP,2013-03-15 19:17:00,
2013-03-15 15:20:00,49.3,35.6,29.45,West,270,0.0,0.0,59,0.00,,,0.00,WUHU21623XXSP,2013-03-15 19:20:00,
2013-03-15 15:21:00,49.3,35.6,29.45,West,270,0.0,0.0,59,0.00,,,0.00,WUHU21623XXSP,2013-03-15 19:21:00,
2013-03-15 15:23:00,49.3,36.0,29.45,West,270,0.0,0.0,60,0.00,,,0.00,WUHU21623XXSP,2013-03-15 19:23:00,
2013-03-15 15:25:00,49.6,35.9,29.45,WSW,247,0.0,0.0,59,0.00,,,0.00,WUHU21623XXSP,2013-03-15 19:25:00,
2013-03-15 15:27:00,49.6,35.9,29.45,WSW,247,0.0,0.0,59,0.00,,,0.00,WUHU21623XXSP,2013-03-15 19:27:00,
2013-03-15 15:28:00,49.6,35.9,29.45,WSW,247,0.0,0.0,59,0.00,,,0.00,WUHU21623XXSP,2013-03-15 19:28:00,
2013-03-15 15:30:00,49.6,35.9,29.45,West,270,0.0,0.0,59,0.00,,,0.00,WUHU21623XXSP,2013-03-15 19:30:00,
2013-03-15 15:31:00,49.6,35.9,29.45,West,270,0.0,0.0,59,0.00,,,0.00,WUHU21623XXSP,2013-03-15 19:31:00,
2013-03-15 15:32:00,49.6,35.9,29.45,WNW,292,0.0,0.0,59,0.00,,,0.00,WUHU21623XXSP,2013-03-15 19:32:00,
2013-03-15 15:33:00,49.6,35.9,29.45,WNW,292,0.0,0.0,59,0.00,,,0.00,WUHU21623XXSP,2013-03-15 19:33:00,
2013-03-15 15:35:00,49.3,35.1,29.44,West,270,0.0,0.0,58,0.00,,,0.00,WUHU21623XXSP,2013-03-15 19:35:00,
2013-03-15 15:36:00,49.3,35.1,29.44,West,270,0.0,0.0,58,0.00,,,0.00,WUHU21623XXSP,2013-03-15 19:36:00,
2013-03-15 15:38:00,49.1,35.4,29.44,West,270,0.0,0.0,59,0.00,,,0.00,WUHU21623XXSP,2013-03-15 19:38:00,
2013-03-15 15:41:00,48.9,35.2,29.44,West,270,0.0,0.0,59,0.00,,,0.00,WUHU21623XXSP,2013-03-15 19:41:00,
2013-03-15 15:42:00,48.9,35.2,29.44,West,270,0.0,0.0,59,0.00,,,0.00,WUHU21623XXSP,2013-03-15 19:42:00,
2013-03-15 15:43:00,49.1,35.4,29.44,West,270,0.0,0.0,59,0.00,,,0.00,WUHU21623XXSP,2013-03-15 19:43:00,
2013-03-15 15:47:00,49.1,35.4,29.44,WSW,247,0.0,0.0,59,0.00,,,0.00,WUHU21623XXSP,2013-03-15 19:47:00,
2013-03-15 15:48:00,49.1,35.4,29.44,WSW,247,0.0,0.0,59,0.00,,,0.00,WUHU21623XXSP,2013-03-15 19:48:00,
2013-03-15 15:52:00,48.9,35.2,29.44,West,270,0.0,0.0,59,0.00,,,0.00,WUHU21623XXSP,2013-03-15 19:52:00,
2013-03-15 15:53:00,48.9,35.2,29.44,West,270,0.0,0.0,59,0.00,,,0.00,WUHU21623XXSP,2013-03-15 19:53:00,
2013-03-15 15:57:00,49.1,35.4,29.44,West,270,0.0,0.0,59,0.00,,,0.00,WUHU21623XXSP,2013-03-15 19:57:00,
2013-03-15 15:58:00,49.3,36.0,29.44,West,270,0.0,0.0,60,0.00,,,0.00,WUHU21623XXSP,2013-03-15 19:58:00,
2013-03-15 15:59:00,49.1,35.9,29.44,West,270,0.0,0.0,60,0.00,,,0.00,WUHU21623XXSP,2013-03-15 19:59:00,
2013-03-15 16:02:00,49.1,35.4,29.44,West,270,0.0,0.0,59,0.00,,,0.00,WUHU21623XXSP,2013-03-15 20:02:00,
2013-03-15 16:03:00,49.1,35.4,29.44,West,270,0.0,0.0,59,0.00,,,0.00,WUHU21623XXSP,2013-03-15 20:03:00,
2013-03-15 16:04:00,49.1,35.4,29.44,West,270,0.0,0.0,59,0.00,,,0.00,WUHU21623XXSP,2013-03-15 20:04:00,
2013-03-15 16:07:00,49.1,35.4,29.44,WNW,292,0.0,0.0,59,0.00,,,0.00,WUHU21623XXSP,2013-03-15 20:07:00,
2013-03-15 16:09:00,48.9,35.2,29.44,West,270,0.0,0.0,59,0.00,,,0.00,WUHU21623XXSP,2013-03-15 20:09:00,
2013-03-15 16:13:00,48.9,35.7,29.44,WSW,247,0.0,0.0,60,0.00,,,0.00,WUHU21623XXSP,2013-03-15 20:13:00,
2013-03-15 16:14:00,48.9,35.7,29.44,WSW,247,0.0,0.0,60,0.00,,,0.00,WUHU21623XXSP,2013-03-15 20:14:00,
2013-03-15 16:18:00,49.1,35.9,29.44,West,270,0.0,0.0,60,0.00,,,0.00,WUHU21623XXSP,2013-03-15 20:18:00,
2013-03-15 16:19:00,49.1,35.9,29.44,West,270,0.0,0.0,60,0.00,,,0.00,WUHU21623XXSP,2013-03-15 20:19:00,
2013-03-15 16:23:00,49.1,35.9,29.43,WSW,247,0.0,0.0,60,0.00,,,0.00,WUHU21623XXSP,2013-03-15 20:23:00,
2013-03-15 16:24:00,49.1,35.9,29.43,WSW,247,0.0,0.0,60,0.00,,,0.00,WUHU21623XXSP,2013-03-15 20:24:00,
2013-03-15 16:29:00,48.7,35.5,29.44,West,270,0.0,0.0,60,0.00,,,0.00,WUHU21623XXSP,2013-03-15 20:29:00,
2013-03-15 16:30:00,48.6,35.4,29.43,WSW,247,0.0,0.0,60,0.00,,,0.00,WUHU21623XXSP,2013-03-15 20:30:00,
2013-03-15 16:34:00,48.4,35.2,29.43,WSW,247,0.0,0.0,60,0.00,,,0.00,WUHU21623XXSP,2013-03-15 20:34:00,
2013-03-15 16:35:00,48.4,35.2,29.43,West,270,0.0,0.0,60,0.00,,,0.00,WUHU21623XXSP,2013-03-15 20:35:00,
2013-03-15 16:36:00,48.4,35.2,29.43,West,270,0.0,0.0,60,0.00,,,0.00,WUHU21623XXSP,2013-03-15 20:36:00,
2013-03-15 16:39:00,48.6,35.4,29.43,WNW,292,0.0,0.0,60,0.00,,,0.00,WUHU21623XXSP,2013-03-15 20:39:00,
2013-03-15 16:40:00,48.4,35.2,29.43,West,270,0.0,0.0,60,0.00,,,0.00,WUHU21623XXSP,2013-03-15 20:40:00,
2013-03-15 16:41:00,48.4,35.2,29.43,West,270,0.0,0.0,60,0.00,,,0.00,WUHU21623XXSP,2013-03-15 20:41:00,
2013-03-15 16:45:00,48.0,34.9,29.43,West,270,0.0,0.0,60,0.00,,,0.00,WUHU21623XXSP,2013-03-15 20:45:00,
2013-03-15 16:47:00,48.0,34.9,29.43,West,270,0.0,0.0,60,0.00,,,0.00,WUHU21623XXSP,2013-03-15 20:47:00,
2013-03-15 16:50:00,48.0,35.3,29.43,WNW,292,0.0,0.0,61,0.00,,,0.00,WUHU21623XXSP,2013-03-15 20:50:00,
2013-03-15 16:51:00,47.8,34.7,29.43,WNW,292,0.0,0.0,60,0.00,,,0.00,WUHU21623XXSP,2013-03-15 20:51:00,
2013-03-15 16:52:00,47.8,34.7,29.43,WNW,292,0.0,0.0,60,0.00,,,0.00,WUHU21623XXSP,2013-03-15 20:52:00,
2013-03-15 16:56:00,47.1,34.4,29.43,West,270,0.0,0.0,61,0.00,,,0.00,WUHU21623XXSP,2013-03-15 20:56:00,
2013-03-15 16:57:00,47.1,34.4,29.43,West,270,0.0,0.0,61,0.00,,,0.00,WUHU21623XXSP,2013-03-15 20:57:00,
2013-03-15 17:01:00,46.8,34.4,29.43,West,270,0.0,0.0,62,0.00,,,0.00,WUHU21623XXSP,2013-03-15 21:01:00,
2013-03-15 17:02:00,46.8,34.4,29.43,West,270,0.0,0.0,62,0.00,,,0.00,WUHU21623XXSP,2013-03-15 21:02:00,
2013-03-15 17:03:00,46.8,34.4,29.43,West,270,0.0,0.0,62,0.00,,,0.00,WUHU21623XXSP,2013-03-15 21:03:00,
2013-03-15 17:06:00,46.6,34.2,29.43,WNW,292,0.0,0.0,62,0.00,,,0.00,WUHU21623XXSP,2013-03-15 21:06:00,
2013-03-15 17:07:00,46.6,34.2,29.43,WNW,292,0.0,0.0,62,0.00,,,0.00,WUHU21623XXSP,2013-03-15 21:07:00,
2013-03-15 17:08:00,46.6,34.2,29.43,West,270,0.0,0.0,62,0.00,,,0.00,WUHU21623XXSP,2013-03-15 21:08:00,
2013-03-15 17:12:00,46.2,33.9,29.43,West,270,0.0,0.0,62,0.00,,,0.00,WUHU21623XXSP,2013-03-15 21:12:00,
2013-03-15 17:13:00,46.2,34.3,29.43,NW,315,0.0,0.0,63,0.00,,,0.00,WUHU21623XXSP,2013-03-15 21:13:00,
2013-03-15 17:17:00,46.2,34.3,29.43,West,270,0.0,0.0,63,0.00,,,0.00,WUHU21623XXSP,2013-03-15 21:17:00,
2013-03-15 17:18:00,46.2,34.3,29.43,West,270,0.0,0.0,63,0.00,,,0.00,WUHU21623XXSP,2013-03-15 21:18:00,
2013-03-15 17:22:00,46.2,34.3,29.43,West,270,0.0,0.0,63,0.00,,,0.00,WUHU21623XXSP,2013-03-15 21:22:00,
2013-03-15 17:23:00,46.0,34.3,29.43,West,270,0.0,0.0,64,0.00,,,0.00,WUHU21623XXSP,2013-03-15 21:23:00,
2013-03-15 17:24:00,46.0,34.3,29.43,West,270,0.0,0.0,64,0.00,,,0.00,WUHU21623XXSP,2013-03-15 21:24:00,
2013-03-15 17:27:00,46.0,34.5,29.43,NW,315,0.0,0.0,64,0.00,,,0.00,WUHU21623XXSP,2013-03-15 21:27:00,
2013-03-15 17:28:00,46.0,34.5,29.43,NW,315,0.0,0.0,64,0.00,,,0.00,WUHU21623XXSP,2013-03-15 21:28:00,
2013-03-15 17:29:00,45.7,34.6,29.43,WNW,292,0.0,0.0,65,0.00,,,0.00,WUHU21623XXSP,2013-03-15 21:29:00,
2013-03-15 17:32:00,45.5,34.4,29.44,WNW,292,0.0,0.0,65,0.00,,,0.00,WUHU21623XXSP,2013-03-15 21:32:00,
2013-03-15 17:33:00,45.3,34.4,29.44,WNW,292,0.0,0.0,65,0.00,,,0.00,WUHU21623XXSP,2013-03-15 21:33:00,
2013-03-15 17:34:00,45.3,34.4,29.44,WNW,292,0.0,0.0,65,0.00,,,0.00,WUHU21623XXSP,2013-03-15 21:34:00,
2013-03-15 17:38:00,45.0,34.0,29.43,WNW,292,0.0,0.0,66,0.00,,,0.00,WUHU21623XXSP,2013-03-15 21:38:00,
2013-03-15 17:40:00,44.6,34.3,29.43,WNW,292,0.0,0.0,66,0.00,,,0.00,WUHU21623XXSP,2013-03-15 21:40:00,
2013-03-15 17:43:00,44.4,33.9,29.44,WNW,292,0.0,0.0,67,0.00,,,0.00,WUHU21623XXSP,2013-03-15 21:43:00,
2013-03-15 17:44:00,44.2,34.1,29.44,WNW,292,0.0,0.0,67,0.00,,,0.00,WUHU21623XXSP,2013-03-15 21:44:00,
2013-03-15 17:46:00,44.1,33.9,29.44,WNW,292,0.0,0.0,67,0.00,,,0.00,WUHU21623XXSP,2013-03-15 21:46:00,
2013-03-15 17:48:00,44.1,33.9,29.44,WNW,292,0.0,0.0,67,0.00,,,0.00,WUHU21623XXSP,2013-03-15 21:48:00,
2013-03-15 17:49:00,43.9,34.0,29.43,WNW,292,0.0,0.0,68,0.00,,,0.00,WUHU21623XXSP,2013-03-15 21:49:00,
2013-03-15 17:51:00,43.7,33.8,29.44,WNW,292,0.0,0.0,68,0.00,,,0.00,WUHU21623XXSP,2013-03-15 21:51:00,
2013-03-15 17:53:00,43.5,33.8,29.44,WNW,292,0.0,0.0,68,0.00,,,0.00,WUHU21623XXSP,2013-03-15 21:53:00,
2013-03-15 17:55:00,43.5,34.1,29.44,WNW,292,0.0,0.0,69,0.00,,,0.00,WUHU21623XXSP,2013-03-15 21:55:00,
2013-03-15 17:57:00,43.5,34.1,29.44,WNW,292,0.0,0.0,69,0.00,,,0.00,WUHU21623XXSP,2013-03-15 21:57:00,
2013-03-15 17:58:00,43.5,34.4,29.44,WNW,292,0.0,0.0,70,0.00,,,0.00,WUHU21623XXSP,2013-03-15 21:58:00,
2013-03-15 18:00:00,43.3,34.4,29.44,WNW,292,0.0,0.0,69,0.00,,,0.00,WUHU21623XXSP,2013-03-15 22:00:00,
2013-03-15 18:02:00,43.2,33.9,29.43,WNW,292,0.0,0.0,70,0.00,,,0.00,WUHU21623XXSP,2013-03-15 22:02:00,
2013-03-15 18:04:00,43.0,34.1,29.44,WNW,292,0.0,0.0,70,0.00,,,0.00,WUHU21623XXSP,2013-03-15 22:04:00,
2013-03-15 18:05:00,43.0,34.1,29.44,WNW,292,0.0,0.0,70,0.00,,,0.00,WUHU21623XXSP,2013-03-15 22:05:00,
2013-03-15 18:08:00,43.0,34.0,29.44,WNW,292,0.0,0.0,71,0.00,,,0.00,WUHU21623XXSP,2013-03-15 22:08:00,
2013-03-15 18:09:00,43.0,34.0,29.44,WNW,292,0.0,0.0,71,0.00,,,0.00,WUHU21623XXSP,2013-03-15 22:09:00,
2013-03-15 18:10:00,42.6,33.9,29.44,WNW,292,0.0,0.0,71,0.00,,,0.00,WUHU21623XXSP,2013-03-15 22:10:00,
2013-03-15 18:14:00,42.4,34.3,29.44,WNW,292,0.0,0.0,72,0.00,,,0.00,WUHU21623XXSP,2013-03-15 22:14:00,
2013-03-15 18:15:00,42.4,34.3,29.44,WNW,292,0.0,0.0,72,0.00,,,0.00,WUHU21623XXSP,2013-03-15 22:15:00,
2013-03-15 18:19:00,42.1,34.1,29.44,WNW,292,0.0,0.0,73,0.00,,,0.00,WUHU21623XXSP,2013-03-15 22:19:00,
2013-03-15 18:20:00,42.1,34.1,29.45,West,270,0.0,0.0,73,0.00,,,0.00,WUHU21623XXSP,2013-03-15 22:20:00,
2013-03-15 18:24:00,42.1,34.1,29.44,West,270,0.0,0.0,74,0.00,,,0.00,WUHU21623XXSP,2013-03-15 22:24:00,
2013-03-15 18:26:00,41.7,34.0,29.44,WNW,292,0.0,0.0,74,0.00,,,0.00,WUHU21623XXSP,2013-03-15 22:26:00,
2013-03-15 18:29:00,41.5,34.2,29.44,WNW,292,0.0,0.0,75,0.00,,,0.00,WUHU21623XXSP,2013-03-15 22:29:00,
2013-03-15 18:31:00,41.5,34.2,29.44,WNW,292,0.0,0.0,75,0.00,,,0.00,WUHU21623XXSP,2013-03-15 22:31:00,
2013-03-15 18:34:00,41.4,34.2,29.44,WNW,292,0.0,0.0,75,0.00,,,0.00,WUHU21623XXSP,2013-03-15 22:34:00,
2013-03-15 18:35:00,41.4,34.2,29.44,WNW,292,0.0,0.0,75,0.00,,,0.00,WUHU21623XXSP,2013-03-15 22:35:00,
2013-03-15 18:36:00,41.4,34.0,29.44,WNW,292,0.0,0.0,75,0.00,,,0.00,WUHU21623XXSP,2013-03-15 22:36:00,
2013-03-15 18:39:00,41.2,34.1,29.44,WNW,292,0.0,0.0,76,0.00,,,0.00,WUHU21623XXSP,2013-03-15 22:39:00,
2013-03-15 18:40:00,41.2,34.1,29.44,WNW,292,0.0,0.0,76,0.00,,,0.00,WUHU21623XXSP,2013-03-15 22:40:00,
2013-03-15 18:41:00,41.2,34.1,29.44,WNW,292,0.0,0.0,76,0.00,,,0.00,WUHU21623XXSP,2013-03-15 22:41:00,
2013-03-15 18:44:00,41.0,34.3,29.44,WNW,292,0.0,0.0,77,0.00,,,0.00,WUHU21623XXSP,2013-03-15 22:44:00,
2013-03-15 18:45:00,41.0,34.3,29.44,WNW,292,0.0,0.0,77,0.00,,,0.00,WUHU21623XXSP,2013-03-15 22:45:00,
2013-03-15 18:47:00,40.8,34.1,29.44,WNW,292,0.0,0.0,77,0.00,,,0.00,WUHU21623XXSP,2013-03-15 22:47:00,
2013-03-15 18:50:00,40.8,34.1,29.44,WNW,292,0.0,0.0,77,0.00,,,0.00,WUHU21623XXSP,2013-03-15 22:50:00,
2013-03-15 18:51:00,40.8,34.1,29.44,WNW,292,0.0,0.0,77,0.00,,,0.00,WUHU21623XXSP,2013-03-15 22:51:00,
2013-03-15 18:53:00,40.8,34.1,29.44,North,0,0.0,0.0,77,0.00,,,0.00,WUHU21623XXSP,2013-03-15 22:53:00,
2013-03-15 18:55:00,40.8,34.4,29.44,NNE,22,0.0,0.0,78,0.00,,,0.00,WUHU21623XXSP,2013-03-15 22:55:00,
2013-03-15 18:56:00,40.8,34.4,29.44,NNE,22,0.0,0.0,78,0.00,,,0.00,WUHU21623XXSP,2013-03-15 22:56:00,
2013-03-15 18:58:00,40.6,34.3,29.44,NNE,22,0.0,0.0,78,0.00,,,0.00,WUHU21623XXSP,2013-03-15 22:58:00,
2013-03-15 19:00:00,40.3,34.3,29.44,NNE,22,0.0,0.0,78,0.00,,,0.00,WUHU21623XXSP,2013-03-15 23:00:00,
2013-03-15 19:01:00,40.1,33.9,29.44,NNE,22,0.0,0.0,79,0.00,,,0.00,WUHU21623XXSP,2013-03-15 23:01:00,
2013-03-15 19:03:00,40.1,33.9,29.44,NNE,22,0.0,0.0,79,0.00,,,0.00,WUHU21623XXSP,2013-03-15 23:03:00,
2013-03-15 19:05:00,40.1,34.4,29.44,NNE,22,0.0,0.0,80,0.00,,,0.00,WUHU21623XXSP,2013-03-15 23:05:00,
2013-03-15 19:06:00,39.9,34.3,29.44,NE,45,0.0,0.0,80,0.00,,,0.00,WUHU21623XXSP,2013-03-15 23:06:00,
2013-03-15 19:08:00,39.7,34.1,29.44,NE,45,0.0,0.0,80,0.00,,,0.00,WUHU21623XXSP,2013-03-15 23:08:00,
2013-03-15 19:10:00,39.6,34.1,29.44,NE,45,0.0,0.0,81,0.00,,,0.00,WUHU21623XXSP,2013-03-15 23:10:00,
2013-03-15 19:11:00,39.6,34.1,29.44,NE,45,0.0,0.0,81,0.00,,,0.00,WUHU21623XXSP,2013-03-15 23:11:00,
2013-03-15 19:12:00,39.4,34.1,29.44,NE,45,0.0,0.0,81,0.00,,,0.00,WUHU21623XXSP,2013-03-15 23:12:00,
2013-03-15 19:13:00,39.4,34.1,29.44,NE,45,0.0,0.0,81,0.00,,,0.00,WUHU21623XXSP,2013-03-15 23:13:00,
2013-03-15 19:15:00,39.4,34.1,29.44,NE,45,0.0,0.0,81,0.00,,,0.00,WUHU21623XXSP,2013-03-15 23:15:00,
2013-03-15 19:16:00,39.4,34.1,29.44,NE,45,0.0,0.0,81,0.00,,,0.00,WUHU21623XXSP,2013-03-15 23:16:00,
2013-03-15 19:17:00,39.2,34.2,29.44,NE,45,0.0,0.0,82,0.00,,,0.00,WUHU21623XXSP,2013-03-15 23:17:00,
2013-03-15 19:19:00,39.0,34.0,29.45,NE,45,0.0,0.0,82,0.00,,,0.00,WUHU21623XXSP,2013-03-15 23:19:00,
2013-03-15 19:20:00,39.0,34.0,29.45,NE,45,0.0,0.0,82,0.00,,,0.00,WUHU21623XXSP,2013-03-15 23:20:00,
2013-03-15 19:21:00,38.8,34.0,29.45,NE,45,0.0,0.0,82,0.00,,,0.00,WUHU21623XXSP,2013-03-15 23:21:00,
2013-03-15 19:22:00,38.8,33.8,29.45,NNE,22,0.0,0.0,82,0.00,,,0.00,WUHU21623XXSP,2013-03-15 23:22:00,
2013-03-15 19:24:00,38.7,33.7,29.45,NNE,22,0.0,0.0,82,0.00,,,0.00,WUHU21623XXSP,2013-03-15 23:24:00,
2013-03-15 19:25:00,38.7,33.7,29.45,NNE,22,0.0,0.0,82,0.00,,,0.00,WUHU21623XXSP,2013-03-15 23:25:00,
2013-03-15 19:26:00,38.7,33.7,29.45,NNE,22,0.0,0.0,82,0.00,,,0.00,WUHU21623XXSP,2013-03-15 23:26:00,
2013-03-15 19:28:00,38.5,33.8,29.45,NNE,22,0.0,0.0,83,0.00,,,0.00,WUHU21623XXSP,2013-03-15 23:28:00,
2013-03-15 19:30:00,38.3,33.6,29.45,NE,45,0.0,0.0,83,0.00,,,0.00,WUHU21623XXSP,2013-03-15 23:30:00,
2013-03-15 19:31:00,38.3,33.6,29.45,NE,45,0.0,0.0,83,0.00,,,0.00,WUHU21623XXSP,2013-03-15 23:31:00,
2013-03-15 19:33:00,38.3,33.6,29.45,NE,45,0.0,0.0,83,0.00,,,0.00,WUHU21623XXSP,2013-03-15 23:33:00,
2013-03-15 19:35:00,38.1,33.6,29.45,NE,45,0.0,0.0,84,0.00,,,0.00,WUHU21623XXSP,2013-03-15 23:35:00,
2013-03-15 19:36:00,38.1,33.6,29.45,NE,45,0.0,0.0,84,0.00,,,0.00,WUHU21623XXSP,2013-03-15 23:36:00,
2013-03-15 19:38:00,37.9,33.5,29.46,NNE,22,0.0,0.0,84,0.00,,,0.00,WUHU21623XXSP,2013-03-15 23:38:00,
2013-03-15 19:40:00,37.9,33.5,29.46,NNE,22,0.0,0.0,84,0.00,,,0.00,WUHU21623XXSP,2013-03-15 23:40:00,
2013-03-15 19:42:00,37.8,33.5,29.46,NNE,22,0.0,0.0,84,0.00,,,0.00,WUHU21623XXSP,2013-03-15 23:42:00,
2013-03-15 19:43:00,37.8,33.5,29.46,NNE,22,0.0,0.0,84,0.00,,,0.00,WUHU21623XXSP,2013-03-15 23:43:00,
2013-03-15 19:45:00,37.6,33.3,29.46,NE,45,0.0,0.0,84,0.00,,,0.00,WUHU21623XXSP,2013-03-15 23:45:00,
2013-03-15 19:47:00,37.6,33.2,29.45,NE,45,0.0,0.0,84,0.00,,,0.00,WUHU21623XXSP,2013-03-15 23:47:00,
2013-03-15 19:48:00,37.6,33.2,29.45,NE,45,0.0,0.0,84,0.00,,,0.00,WUHU21623XXSP,2013-03-15 23:48:00,
2013-03-15 19:51:00,37.4,33.2,29.45,NE,45,0.0,0.0,84,0.00,,,0.00,WUHU21623XXSP,2013-03-15 23:51:00,
2013-03-15 19:52:00,37.4,33.2,29.45,NE,45,0.0,0.0,84,0.00,,,0.00,WUHU21623XXSP,2013-03-15 23:52:00,
2013-03-15 19:53:00,37.4,33.0,29.46,NE,45,0.0,0.0,84,0.00,,,0.00,WUHU21623XXSP,2013-03-15 23:53:00,
2013-03-15 19:56:00,37.2,33.1,29.45,NE,45,0.0,0.0,85,0.00,,,0.00,WUHU21623XXSP,2013-03-15 23:56:00,
2013-03-15 19:57:00,37.2,33.1,29.45,NE,45,0.0,0.0,85,0.00,,,0.00,WUHU21623XXSP,2013-03-15 23:57:00,
2013-03-15 19:58:00,37.2,33.1,29.45,NE,45,0.0,0.0,85,0.00,,,0.00,WUHU21623XXSP,2013-03-15 23:58:00,
2013-03-15 20:01:00,37.2,33.1,29.46,NE,45,0.0,0.0,85,0.00,,,0.00,WUHU21623XXSP,2013-03-16 00:01:00,
2013-03-15 20:02:00,37.2,33.1,29.46,NE,45,0.0,0.0,85,0.00,,,0.00,WUHU21623XXSP,2013-03-16 00:02:00,
2013-03-15 20:03:00,37.2,33.1,29.46,NE,45,0.0,0.0,85,0.00,,,0.00,WUHU21623XXSP,2013-03-16 00:03:00,
2013-03-15 20:06:00,37.0,32.9,29.46,NE,45,0.0,0.0,85,0.00,,,0.00,WUHU21623XXSP,2013-03-16 00:06:00,
2013-03-15 20:08:00,37.0,32.9,29.46,NE,45,0.0,0.0,85,0.00,,,0.00,WUHU21623XXSP,2013-03-16 00:08:00,
2013-03-15 20:11:00,36.9,32.7,29.45,NNE,22,0.0,0.0,85,0.02,,,0.00,WUHU21623XXSP,2013-03-16 00:11:00,
2013-03-15 20:13:00,36.9,32.7,29.46,NNE,22,0.0,0.0,85,0.02,,,0.02,WUHU21623XXSP,2013-03-16 00:13:00,
2013-03-15 20:16:00,36.7,32.5,29.45,NE,45,0.0,0.0,85,0.02,,,0.02,WUHU21623XXSP,2013-03-16 00:16:00,
2013-03-15 20:18:00,36.7,32.5,29.45,NE,45,0.0,0.0,85,0.02,,,0.02,WUHU21623XXSP,2013-03-16 00:18:00,
2013-03-15 20:22:00,36.5,32.5,29.45,NE,45,0.0,0.0,86,0.02,,,0.02,WUHU21623XXSP,2013-03-16 00:22:00,
2013-03-15 20:23:00,36.5,32.6,29.46,NE,45,0.0,0.0,86,0.02,,,0.02,WUHU21623XXSP,2013-03-16 00:23:00,
2013-03-15 20:27:00,36.5,32.6,29.46,NE,45,0.0,0.0,86,0.02,,,0.02,WUHU21623XXSP,2013-03-16 00:27:00,
2013-03-15 20:28:00,36.5,32.6,29.46,NE,45,0.0,0.0,86,0.02,,,0.02,WUHU21623XXSP,2013-03-16 00:28:00,
2013-03-15 20:29:00,36.5,32.6,29.46,NE,45,0.0,0.0,86,0.02,,,0.02,WUHU21623XXSP,2013-03-16 00:29:00,
2013-03-15 20:32:00,36.3,32.5,29.46,NE,45,0.0,0.0,86,0.02,,,0.02,WUHU21623XXSP,2013-03-16 00:32:00,
2013-03-15 20:34:00,36.3,32.5,29.46,NE,45,0.0,0.0,86,0.02,,,0.02,WUHU21623XXSP,2013-03-16 00:34:00,
2013-03-15 20:37:00,36.3,32.5,29.45,NE,45,0.0,0.0,86,0.02,,,0.02,WUHU21623XXSP,2013-03-16 00:37:00,
2013-03-15 20:39:00,36.3,32.5,29.46,NE,45,0.0,0.0,86,0.02,,,0.02,WUHU21623XXSP,2013-03-16 00:39:00,
2013-03-15 20:42:00,36.3,32.5,29.45,NE,45,0.0,0.0,86,0.02,,,0.02,WUHU21623XXSP,2013-03-16 00:42:00,
2013-03-15 20:44:00,36.3,32.5,29.45,NE,45,0.0,0.0,86,0.02,,,0.02,WUHU21623XXSP,2013-03-16 00:44:00,
2013-03-15 20:47:00,36.1,32.3,29.45,NE,45,0.0,0.0,86,0.04,,,0.02,WUHU21623XXSP,2013-03-16 00:47:00,
2013-03-15 20:49:00,36.1,32.3,29.45,NE,45,0.0,0.0,86,0.04,,,0.04,WUHU21623XXSP,2013-03-16 00:49:00,
2013-03-15 20:53:00,36.0,32.3,29.45,NNE,22,0.0,0.0,86,0.04,,,0.04,WUHU21623XXSP,2013-03-16 00:53:00,
2013-03-15 20:54:00,36.0,32.3,29.45,NNE,22,0.0,0.0,86,0.04,,,0.04,WUHU21623XXSP,2013-03-16 00:54:00,
2013-03-15 20:55:00,36.0,32.1,29.45,NNE,22,0.0,0.0,86,0.04,,,0.04,WUHU21623XXSP,2013-03-16 00:55:00,
2013-03-15 20:58:00,36.0,32.1,29.45,NNE,22,0.0,0.0,86,0.04,,,0.04,WUHU21623XXSP,2013-03-16 00:58:00,
2013-03-15 20:59:00,36.0,32.1,29.45,NNE,22,0.0,0.0,86,0.04,,,0.04,WUHU21623XXSP,2013-03-16 00:59:00,
2013-03-15 21:00:00,36.0,32.1,29.45,NNE,22,0.0,0.0,86,0.04,,,0.04,WUHU21623XXSP,2013-03-16 01:00:00,
2013-03-15 21:03:00,36.0,32.1,29.45,NNE,22,0.0,0.0,86,0.04,,,0.04,WUHU21623XXSP,2013-03-16 01:03:00,
2013-03-15 21:04:00,36.0,32.1,29.45,NNE,22,0.0,0.0,86,0.04,,,0.04,WUHU21623XXSP,2013-03-16 01:04:00,
2013-03-15 21:05:00,36.0,32.1,29.45,NNE,22,0.0,0.0,86,0.04,,,0.04,WUHU21623XXSP,2013-03-16 01:05:00,
2013-03-15 21:09:00,35.8,32.2,29.46,NE,45,0.0,0.0,87,0.02,,,0.04,WUHU21623XXSP,2013-03-16 01:09:00,
2013-03-15 21:10:00,35.8,32.2,29.45,NE,45,0.0,0.0,87,0.02,,,0.04,WUHU21623XXSP,2013-03-16 01:10:00,
2013-03-15 21:14:00,35.8,32.2,29.46,NE,45,0.0,0.0,87,0.02,,,0.04,WUHU21623XXSP,2013-03-16 01:14:00,
2013-03-15 21:15:00,35.8,32.2,29.46,NE,45,0.0,0.0,87,0.02,,,0.04,WUHU21623XXSP,2013-03-16 01:15:00,
2013-03-15 21:19:00,35.8,32.2,29.45,NE,45,0.0,0.0,87,0.02,,,0.04,WUHU21623XXSP,2013-03-16 01:19:00,
2013-03-15 21:20:00,35.8,32.2,29.45,NE,45,0.0,0.0,87,0.02,,,0.04,WUHU21623XXSP,2013-03-16 01:20:00,
2013-03-15 21:24:00,35.8,32.2,29.46,NE,45,0.0,0.0,87,0.02,,,0.04,WUHU21623XXSP,2013-03-16 01:24:00,
2013-03-15 21:25:00,35.6,32.0,29.45,NE,45,0.0,0.0,87,0.02,,,0.04,WUHU21623XXSP,2013-03-16 01:25:00,
2013-03-15 21:29:00,35.4,32.0,29.45,NE,45,0.0,0.0,87,0.02,,,0.04,WUHU21623XXSP,2013-03-16 01:29:00,
2013-03-15 21:30:00,35.4,32.0,29.45,NE,45,0.0,0.0,87,0.02,,,0.04,WUHU21623XXSP,2013-03-16 01:30:00,
2013-03-15 21:34:00,35.4,31.9,29.45,NE,45,0.0,0.0,87,0.02,,,0.04,WUHU21623XXSP,2013-03-16 01:34:00,
2013-03-15 21:35:00,35.4,31.9,29.45,NE,45,0.0,0.0,87,0.02,,,0.04,WUHU21623XXSP,2013-03-16 01:35:00,
2013-03-15 21:40:00,35.4,31.9,29.45,NE,45,0.0,0.0,87,0.02,,,0.04,WUHU21623XXSP,2013-03-16 01:40:00,
2013-03-15 21:45:00,35.4,31.9,29.45,NE,45,0.0,0.0,87,0.00,,,0.04,WUHU21623XXSP,2013-03-16 01:45:00,
2013-03-15 21:50:00,35.4,31.9,29.45,NE,45,0.0,0.0,87,0.00,,,0.04,WUHU21623XXSP,2013-03-16 01:50:00,
2013-03-15 21:55:00,35.2,31.7,29.45,NE,45,0.0,0.0,87,0.00,,,0.04,WUHU21623XXSP,2013-03-16 01:55:00,
2013-03-15 21:56:00,35.2,31.7,29.45,NE,45,0.0,0.0,87,0.00,,,0.04,WUHU21623XXSP,2013-03-16 01:56:00,
2013-03-15 22:00:00,35.2,31.7,29.45,NE,45,0.0,0.0,87,0.00,,,0.04,WUHU21623XXSP,2013-03-16 02:00:00,
2013-03-15 22:01:00,35.2,31.7,29.45,NE,45,0.0,0.0,87,0.00,,,0.04,WUHU21623XXSP,2013-03-16 02:01:00,
2013-03-15 22:02:00,34.9,31.3,29.45,NE,45,0.0,0.0,87,0.02,,,0.04,WUHU21623XXSP,2013-03-16 02:02:00,
2013-03-15 22:05:00,34.9,31.3,29.45,NE,45,0.0,0.0,87,0.02,,,0.06,WUHU21623XXSP,2013-03-16 02:05:00,
2013-03-15 22:06:00,34.9,31.3,29.45,NE,45,0.0,0.0,87,0.02,,,0.06,WUHU21623XXSP,2013-03-16 02:06:00,
2013-03-15 22:07:00,34.9,31.3,29.45,NE,45,0.0,0.0,87,0.02,,,0.06,WUHU21623XXSP,2013-03-16 02:07:00,
2013-03-15 22:10:00,34.7,31.1,29.45,NE,45,0.0,0.0,87,0.02,,,0.06,WUHU21623XXSP,2013-03-16 02:10:00,
2013-03-15 22:11:00,34.7,31.1,29.45,NE,45,0.0,0.0,87,0.02,,,0.06,WUHU21623XXSP,2013-03-16 02:11:00,
2013-03-15 22:12:00,34.7,31.1,29.44,NE,45,0.0,0.0,87,0.02,,,0.06,WUHU21623XXSP,2013-03-16 02:12:00,
2013-03-15 22:16:00,34.5,31.0,29.45,NE,45,0.0,0.0,87,0.02,,,0.06,WUHU21623XXSP,2013-03-16 02:16:00,
2013-03-15 22:17:00,34.5,31.0,29.45,NE,45,0.0,0.0,87,0.02,,,0.06,WUHU21623XXSP,2013-03-16 02:17:00,
2013-03-15 22:21:00,34.5,31.0,29.44,NE,45,0.0,0.0,87,0.02,,,0.06,WUHU21623XXSP,2013-03-16 02:21:00,
2013-03-15 22:22:00,34.5,31.0,29.44,NE,45,0.0,0.0,87,0.02,,,0.06,WUHU21623XXSP,2013-03-16 02:22:00,
2013-03-15 22:23:00,34.5,31.0,29.44,NE,45,0.0,0.0,87,0.02,,,0.06,WUHU21623XXSP,2013-03-16 02:23:00,
2013-03-15 22:26:00,34.3,31.0,29.44,NE,45,0.0,0.0,87,0.02,,,0.06,WUHU21623XXSP,2013-03-16 02:26:00,
2013-03-15 22:28:00,34.3,30.8,29.44,NE,45,0.0,0.0,87,0.02,,,0.06,WUHU21623XXSP,2013-03-16 02:28:00,
2013-03-15 22:31:00,34.3,30.8,29.44,NE,45,0.0,0.0,87,0.02,,,0.06,WUHU21623XXSP,2013-03-16 02:31:00,
2013-03-15 22:33:00,34.3,30.8,29.44,NE,45,0.0,0.0,87,0.02,,,0.06,WUHU21623XXSP,2013-03-16 02:33:00,
2013-03-15 22:37:00,34.5,31.0,29.45,NE,45,0.0,0.0,87,0.02,,,0.06,WUHU21623XXSP,2013-03-16 02:37:00,
2013-03-15 22:38:00,34.3,30.8,29.45,NE,45,0.0,0.0,87,0.04,,,0.06,WUHU21623XXSP,2013-03-16 02:38:00,
2013-03-15 22:39:00,34.3,30.8,29.45,NE,45,0.0,0.0,87,0.04,,,0.06,WUHU21623XXSP,2013-03-16 02:39:00,
2013-03-15 22:42:00,34.3,30.8,29.45,NE,45,0.0,0.0,87,0.04,,,0.08,WUHU21623XXSP,2013-03-16 02:42:00,
2013-03-15 22:43:00,34.3,30.8,29.45,NE,45,0.0,0.0,87,0.04,,,0.08,WUHU21623XXSP,2013-03-16 02:43:00,
2013-03-15 22:44:00,34.3,30.8,29.45,NE,45,0.0,0.0,87,0.04,,,0.08,WUHU21623XXSP,2013-03-16 02:44:00,
2013-03-15 22:47:00,34.3,30.8,29.44,NE,45,0.0,0.0,87,0.04,,,0.08,WUHU21623XXSP,2013-03-16 02:47:00,
2013-03-15 22:48:00,34.3,30.8,29.44,NE,45,0.0,0.0,87,0.04,,,0.08,WUHU21623XXSP,2013-03-16 02:48:00,
2013-03-15 22:49:00,34.3,30.8,29.44,NE,45,0.0,0.0,87,0.04,,,0.08,WUHU21623XXSP,2013-03-16 02:49:00,
2013-03-15 22:52:00,34.3,30.8,29.43,NE,45,0.0,0.0,87,0.04,,,0.08,WUHU21623XXSP,2013-03-16 02:52:00,
2013-03-15 22:53:00,34.3,30.8,29.43,NE,45,0.0,0.0,87,0.04,,,0.08,WUHU21623XXSP,2013-03-16 02:53:00,
2013-03-15 22:54:00,34.3,30.8,29.43,NE,45,0.0,0.0,87,0.04,,,0.08,WUHU21623XXSP,2013-03-16 02:54:00,
2013-03-15 22:57:00,34.3,30.8,29.43,NE,45,0.0,0.0,87,0.04,,,0.08,WUHU21623XXSP,2013-03-16 02:57:00,
2013-03-15 22:58:00,34.3,30.8,29.43,NE,45,0.0,0.0,87,0.04,,,0.08,WUHU21623XXSP,2013-03-16 02:58:00,
2013-03-15 22:59:00,34.3,30.8,29.43,NE,45,0.0,0.0,87,0.04,,,0.08,WUHU21623XXSP,2013-03-16 02:59:00,
2013-03-15 23:00:00,34.3,30.8,29.43,NE,45,0.0,0.0,87,0.04,,,0.08,WUHU21623XXSP,2013-03-16 03:00:00,
2013-03-15 23:03:00,34.3,30.8,29.43,NE,45,0.0,0.0,87,0.02,,,0.08,WUHU21623XXSP,2013-03-16 03:03:00,
2013-03-15 23:04:00,34.3,30.8,29.43,NE,45,0.0,0.0,87,0.02,,,0.08,WUHU21623XXSP,2013-03-16 03:04:00,
2013-03-15 23:05:00,34.3,30.8,29.43,NE,45,0.0,0.0,87,0.02,,,0.08,WUHU21623XXSP,2013-03-16 03:05:00,
2013-03-15 23:08:00,34.3,30.8,29.45,NE,45,0.0,0.0,87,0.02,,,0.08,WUHU21623XXSP,2013-03-16 03:08:00,
2013-03-15 23:09:00,34.3,30.8,29.45,NE,45,0.0,0.0,87,0.02,,,0.08,WUHU21623XXSP,2013-03-16 03:09:00,
2013-03-15 23:10:00,34.3,30.8,29.45,NE,45,0.0,0.0,87,0.02,,,0.08,WUHU21623XXSP,2013-03-16 03:10:00,
2013-03-15 23:13:00,34.3,30.8,29.45,NE,45,0.0,0.0,87,0.02,,,0.08,WUHU21623XXSP,2013-03-16 03:13:00,
2013-03-15 23:14:00,34.2,30.6,29.45,NE,45,0.0,0.0,87,0.02,,,0.08,WUHU21623XXSP,2013-03-16 03:14:00,
2013-03-15 23:15:00,34.2,30.6,29.45,NE,45,0.0,0.0,87,0.02,,,0.08,WUHU21623XXSP,2013-03-16 03:15:00,
2013-03-15 23:18:00,34.2,30.9,29.45,NE,45,0.0,0.0,88,0.02,,,0.08,WUHU21623XXSP,2013-03-16 03:18:00,
2013-03-15 23:19:00,34.2,30.9,29.45,NE,45,0.0,0.0,88,0.02,,,0.08,WUHU21623XXSP,2013-03-16 03:19:00,
2013-03-15 23:21:00,34.2,30.9,29.45,NE,45,0.0,0.0,88,0.02,,,0.08,WUHU21623XXSP,2013-03-16 03:21:00,
2013-03-15 23:22:00,34.2,30.9,29.45,NE,45,0.0,0.0,88,0.02,,,0.08,WUHU21623XXSP,2013-03-16 03:22:00,
2013-03-15 23:23:00,34.2,30.9,29.44,NE,45,0.0,0.0,88,0.02,,,0.08,WUHU21623XXSP,2013-03-16 03:23:00,
2013-03-15 23:24:00,34.2,30.9,29.44,NE,45,0.0,0.0,88,0.02,,,0.08,WUHU21623XXSP,2013-03-16 03:24:00,
2013-03-15 23:27:00,34.2,30.9,29.43,NE,45,0.0,0.0,88,0.02,,,0.08,WUHU21623XXSP,2013-03-16 03:27:00,
2013-03-15 23:29:00,34.2,30.9,29.43,NE,45,0.0,0.0,88,0.02,,,0.08,WUHU21623XXSP,2013-03-16 03:29:00,
2013-03-15 23:30:00,34.2,30.9,29.43,NE,45,0.0,0.0,88,0.02,,,0.08,WUHU21623XXSP,2013-03-16 03:30:00,
2013-03-15 23:32:00,34.2,30.9,29.42,NE,45,0.0,0.0,88,0.02,,,0.08,WUHU21623XXSP,2013-03-16 03:32:00,
2013-03-15 23:33:00,34.2,30.9,29.42,NE,45,0.0,0.0,88,0.02,,,0.08,WUHU21623XXSP,2013-03-16 03:33:00,
2013-03-15 23:34:00,34.2,30.9,29.43,ENE,67,0.0,0.0,88,0.00,,,0.08,WUHU21623XXSP,2013-03-16 03:34:00,
2013-03-15 23:35:00,34.2,30.9,29.43,ENE,67,0.0,0.0,88,0.00,,,0.08,WUHU21623XXSP,2013-03-16 03:35:00,
2013-03-15 23:37:00,34.2,30.9,29.43,ENE,67,0.0,0.0,88,0.00,,,0.08,WUHU21623XXSP,2013-03-16 03:37:00,
2013-03-15 23:38:00,34.2,30.9,29.43,ENE,67,0.0,0.0,88,0.00,,,0.08,WUHU21623XXSP,2013-03-16 03:38:00,
2013-03-15 23:40:00,34.2,30.9,29.43,ENE,67,0.0,0.0,88,0.00,,,0.08,WUHU21623XXSP,2013-03-16 03:40:00,
2013-03-15 23:43:00,34.2,30.9,29.43,ENE,67,0.0,0.0,88,0.00,,,0.08,WUHU21623XXSP,2013-03-16 03:43:00,
2013-03-15 23:45:00,34.2,30.9,29.43,ENE,67,0.0,0.0,88,0.00,,,0.08,WUHU21623XXSP,2013-03-16 03:45:00,
2013-03-15 23:46:00,34.2,30.9,29.42,ENE,67,0.0,0.0,88,0.00,,,0.08,WUHU21623XXSP,2013-03-16 03:46:00,
2013-03-15 23:48:00,34.2,30.9,29.42,ENE,67,0.0,0.0,88,0.00,,,0.08,WUHU21623XXSP,2013-03-16 03:48:00,
2013-03-15 23:50:00,34.2,30.9,29.42,ENE,67,0.0,0.0,88,0.00,,,0.08,WUHU21623XXSP,2013-03-16 03:50:00,
2013-03-15 23:52:00,34.2,30.9,29.42,ENE,67,0.0,0.0,88,0.00,,,0.08,WUHU21623XXSP,2013-03-16 03:52:00,
2013-03-15 23:54:00,34.2,30.9,29.42,ENE,67,0.0,0.0,88,0.00,,,0.08,WUHU21623XXSP,2013-03-16 03:54:00,
2013-03-15 23:55:00,34.2,30.9,29.42,ENE,67,0.0,0.0,88,0.00,,,0.08,WUHU21623XXSP,2013-03-16 03:55:00,
2013-03-15 23:57:00,34.2,30.9,29.42,ENE,67,0.0,0.0,88,0.00,,,0.08,WUHU21623XXSP,2013-03-16 03:57:00,
2013-03-15 23:59:00,34.2,30.9,29.42,ENE,67,0.0,0.0,88,0.00,,,0.08,WUHU21623XXSP,2013-03-16 03:59:00,